Observation data for Snyder SSW on 02/14/2020      Previous  Date  Next       Current Mesonet Observations  Soil Data  Daily Summary Page  Observations in Plain Language
KWT1 140600Z 09006KT M02/M03 A3033 RMK A01 T10221028  RH  096%=      5-min Rain = 0
KWT1 140601Z 09006KT M02/M03 A3033 RMK A01 T10221028  RH  096%=      5-min Rain = 0
KWT1 140602Z 09006KT M02/M03 A3033 RMK A01 T10221027  RH  096%=      5-min Rain = 0
KWT1 140603Z 09006KT M02/M03 A3033 RMK A01 T10221027  RH  096%=      5-min Rain = 0
KWT1 140604Z 09006KT M02/M03 A3033 RMK A01 T10211027  RH  096%=      5-min Rain = 0
KWT1 140605Z 09006KT M02/M03 A3033 RMK A01 T10221027  RH  096%=      5-min Rain = 0
KWT1 140606Z 09006KT M02/M03 A3033 RMK A01 T10221027  RH  096%=      5-min Rain = 0
KWT1 140607Z 09006KT M02/M03 A3033 RMK A01 T10221028  RH  096%=      5-min Rain = 0
KWT1 140608Z 09007KT M02/M03 A3033 RMK A01 T10221028  RH  096%=      5-min Rain = 0
KWT1 140609Z 09006KT M02/M03 A3033 RMK A01 T10231028  RH  096%=      5-min Rain = 0
KWT1 140610Z 09006KT M02/M03 A3033 RMK A01 T10221028  RH  096%=      5-min Rain = 0
KWT1 140611Z 09006KT M02/M03 A3033 RMK A01 T10231028  RH  096%=      5-min Rain = 0
KWT1 140612Z 09006KT M02/M03 A3033 RMK A01 T10231029  RH  096%=      5-min Rain = 0
KWT1 140613Z 09006KT M02/M03 A3033 RMK A01 T10241029  RH  096%=      5-min Rain = 0
KWT1 140614Z 09006KT M02/M03 A3033 RMK A01 T10241028  RH  096%=      5-min Rain = 0
KWT1 140615Z 09006KT M02/M03 A3033 RMK A01 T10231028  RH  097%=      5-min Rain = 0
KWT1 140616Z 09006KT M02/M03 A3033 RMK A01 T10231028  RH  097%=      5-min Rain = 0
KWT1 140617Z 08006KT M02/M03 A3033 RMK A01 T10231028  RH  097%=      5-min Rain = 0
KWT1 140618Z 08006KT M02/M03 A3033 RMK A01 T10231028  RH  097%=      5-min Rain = 0
KWT1 140619Z 08006KT M02/M03 A3033 RMK A01 T10231028  RH  097%=      5-min Rain = 0
KWT1 140620Z 08006KT M02/M03 A3033 RMK A01 T10231027  RH  097%=      5-min Rain = 0
KWT1 140621Z 09006KT M02/M03 A3033 RMK A01 T10231027  RH  097%=      5-min Rain = 0
KWT1 140622Z 09006KT M02/M03 A3033 RMK A01 T10231028  RH  097%=      5-min Rain = 0
KWT1 140623Z 09006KT M02/M03 A3033 RMK A01 T10231028  RH  097%=      5-min Rain = 0
KWT1 140624Z 09006KT M02/M03 A3033 RMK A01 T10231028  RH  097%=      5-min Rain = 0
KWT1 140625Z 09006KT M02/M03 A3033 RMK A01 T10241028  RH  097%=      5-min Rain = 0
KWT1 140626Z 09005KT M02/M03 A3033 RMK A01 T10241029  RH  097%=      5-min Rain = 0
KWT1 140627Z 09006KT M02/M03 A3033 RMK A01 T10241029  RH  097%=      5-min Rain = 0
KWT1 140628Z 09005KT M02/M03 A3033 RMK A01 T10241028  RH  097%=      5-min Rain = 0
KWT1 140629Z 09006KT M02/M03 A3033 RMK A01 T10241028  RH  097%=      5-min Rain = 0
KWT1 140630Z 09006KT M02/M03 A3033 RMK A01 T10241028  RH  097%=      5-min Rain = 0
KWT1 140631Z 09006KT M02/M03 A3033 RMK A01 T10241028  RH  097%=      5-min Rain = 0
KWT1 140632Z 09006KT M02/M03 A3033 RMK A01 T10231028  RH  097%=      5-min Rain = 0
KWT1 140633Z 09006KT M02/M03 A3033 RMK A01 T10231028  RH  097%=      5-min Rain = 0
KWT1 140634Z 09007KT M02/M03 A3033 RMK A01 T10231028  RH  097%=      5-min Rain = 0
KWT1 140635Z 09006KT M02/M03 A3032 RMK A01 T10231028  RH  097%=      5-min Rain = 0
KWT1 140636Z 09006KT M02/M03 A3032 RMK A01 T10231028  RH  097%=      5-min Rain = 0
KWT1 140637Z 09006KT M02/M03 A3032 RMK A01 T10231027  RH  097%=      5-min Rain = 0
KWT1 140638Z 09005KT M02/M03 A3032 RMK A01 T10231027  RH  097%=      5-min Rain = 0
KWT1 140639Z 09007KT M02/M03 A3032 RMK A01 T10231028  RH  097%=      5-min Rain = 0
KWT1 140640Z 09007KT M02/M03 A3033 RMK A01 T10231028  RH  097%=      5-min Rain = 0
KWT1 140641Z 09007KT M02/M03 A3033 RMK A01 T10231028  RH  097%=      5-min Rain = 0
KWT1 140642Z 09007KT M02/M03 A3033 RMK A01 T10231027  RH  097%=      5-min Rain = 0
KWT1 140643Z 09007KT M02/M03 A3033 RMK A01 T10221027  RH  097%=      5-min Rain = 0
KWT1 140644Z 08007KT M02/M03 A3033 RMK A01 T10221027  RH  096%=      5-min Rain = 0
KWT1 140645Z 09007KT M02/M03 A3033 RMK A01 T10221028  RH  096%=      5-min Rain = 0
KWT1 140646Z 09007KT M02/M03 A3033 RMK A01 T10221028  RH  096%=      5-min Rain = 0
KWT1 140647Z 08007KT M02/M03 A3033 RMK A01 T10221029  RH  095%=      5-min Rain = 0
KWT1 140648Z 08007KT M02/M03 A3033 RMK A01 T10221029  RH  095%=      5-min Rain = 0
KWT1 140649Z 07007KT M02/M03 A3033 RMK A01 T10221029  RH  095%=      5-min Rain = 0
KWT1 140650Z 08007KT M02/M03 A3033 RMK A01 T10221029  RH  095%=      5-min Rain = 0
KWT1 140651Z 07006KT M02/M03 A3033 RMK A01 T10221029  RH  095%=      5-min Rain = 0
KWT1 140652Z 08007KT M02/M03 A3033 RMK A01 T10211029  RH  094%=      5-min Rain = 0
KWT1 140653Z 07007KT M02/M03 A3033 RMK A01 T10211029  RH  094%=      5-min Rain = 0
KWT1 140654Z 07006KT M02/M03 A3032 RMK A01 T10211030  RH  094%=      5-min Rain = 0
KWT1 140655Z 08007KT M02/M03 A3032 RMK A01 T10211030  RH  094%=      5-min Rain = 0
KWT1 140656Z 08007KT M02/M03 A3032 RMK A01 T10201030  RH  093%=      5-min Rain = 0
KWT1 140657Z 08007KT M02/M03 A3032 RMK A01 T10201030  RH  093%=      5-min Rain = 0
KWT1 140658Z 08009KT M02/M03 A3032 RMK A01 T10201031  RH  093%=      5-min Rain = 0
KWT1 140659Z 08007KT M02/M03 A3032 RMK A01 T10201031  RH  092%=      5-min Rain = 0
KWT1 140700Z 08007KT M02/M03 A3032 RMK A01 T10201031  RH  092%=      5-min Rain = 0
KWT1 140701Z 09008KT M02/M03 A3032 RMK A01 T10201032  RH  092%=      5-min Rain = 0
KWT1 140702Z 07008KT M02/M03 A3032 RMK A01 T10201031  RH  092%=      5-min Rain = 0
KWT1 140703Z 08009KT M02/M03 A3032 RMK A01 T10191031  RH  092%=      5-min Rain = 0
KWT1 140704Z 08009KT M02/M03 A3032 RMK A01 T10191032  RH  091%=      5-min Rain = 0
KWT1 140705Z 08007KT M02/M03 A3032 RMK A01 T10201033  RH  091%=      5-min Rain = 0
KWT1 140706Z 08009KT M02/M03 A3032 RMK A01 T10191033  RH  091%=      5-min Rain = 0
KWT1 140707Z 07009KT M02/M03 A3032 RMK A01 T10191033  RH  090%=      5-min Rain = 0
KWT1 140708Z 08007KT M02/M03 A3032 RMK A01 T10191034  RH  090%=      5-min Rain = 0
KWT1 140709Z 08008KT M02/M03 A3032 RMK A01 T10191034  RH  090%=      5-min Rain = 0
KWT1 140710Z 08009KT M02/M03 A3033 RMK A01 T10191034  RH  090%=      5-min Rain = 0
KWT1 140711Z 08008KT M02/M03 A3033 RMK A01 T10201034  RH  090%=      5-min Rain = 0
KWT1 140712Z 08009KT M02/M04 A3033 RMK A01 T10201035  RH  089%=      5-min Rain = 0
KWT1 140713Z 07008KT M02/M04 A3033 RMK A01 T10201035  RH  089%=      5-min Rain = 0
KWT1 140714Z 08007KT M02/M04 A3033 RMK A01 T10191035  RH  089%=      5-min Rain = 0
KWT1 140715Z 08007KT M02/M04 A3033 RMK A01 T10201035  RH  089%=      5-min Rain = 0
KWT1 140716Z 09008KT M02/M04 A3033 RMK A01 T10201036  RH  089%=      5-min Rain = 0
KWT1 140717Z 09006KT M02/M04 A3033 RMK A01 T10201036  RH  089%=      5-min Rain = 0
KWT1 140718Z 08007KT M02/M04 A3033 RMK A01 T10201036  RH  089%=      5-min Rain = 0
KWT1 140719Z 09007KT M02/M04 A3033 RMK A01 T10211037  RH  089%=      5-min Rain = 0
KWT1 140720Z 08007KT M02/M04 A3033 RMK A01 T10211037  RH  089%=      5-min Rain = 0
KWT1 140721Z 08006KT M02/M04 A3033 RMK A01 T10211037  RH  089%=      5-min Rain = 0
KWT1 140722Z 09006KT M02/M04 A3033 RMK A01 T10211037  RH  089%=      5-min Rain = 0
KWT1 140723Z 09008KT M02/M04 A3033 RMK A01 T10221037  RH  089%=      5-min Rain = 0
KWT1 140724Z 09005KT M02/M04 A3033 RMK A01 T10211037  RH  089%=      5-min Rain = 0
KWT1 140725Z 09005KT M02/M04 A3033 RMK A01 T10221037  RH  089%=      5-min Rain = 0
KWT1 140726Z 09005KT M02/M04 A3033 RMK A01 T10221038  RH  089%=      5-min Rain = 0
KWT1 140727Z 09008KT M02/M04 A3033 RMK A01 T10221038  RH  089%=      5-min Rain = 0
KWT1 140728Z 10006KT M02/M04 A3033 RMK A01 T10221038  RH  089%=      5-min Rain = 0
KWT1 140729Z 09007KT M02/M04 A3033 RMK A01 T10231038  RH  089%=      5-min Rain = 0
KWT1 140730Z 09007KT M02/M04 A3033 RMK A01 T10231038  RH  089%=      5-min Rain = 0
KWT1 140731Z 10007KT M02/M04 A3033 RMK A01 T10221038  RH  089%=      5-min Rain = 0
KWT1 140732Z 09006KT M02/M04 A3033 RMK A01 T10231039  RH  089%=      5-min Rain = 0
KWT1 140733Z 10007KT M02/M04 A3033 RMK A01 T10231039  RH  089%=      5-min Rain = 0
KWT1 140734Z 10007KT M02/M04 A3033 RMK A01 T10231039  RH  089%=      5-min Rain = 0
KWT1 140735Z 10007KT M02/M04 A3033 RMK A01 T10241039  RH  089%=      5-min Rain = 0
KWT1 140736Z 10006KT M02/M04 A3033 RMK A01 T10241039  RH  090%=      5-min Rain = 0
KWT1 140737Z 09006KT M02/M04 A3033 RMK A01 T10241039  RH  090%=      5-min Rain = 0
KWT1 140738Z 10006KT M03/M04 A3033 RMK A01 T10251039  RH  090%=      5-min Rain = 0
KWT1 140739Z 10006KT M03/M04 A3033 RMK A01 T10261039  RH  090%=      5-min Rain = 0
KWT1 140740Z 10006KT M03/M04 A3033 RMK A01 T10261039  RH  091%=      5-min Rain = 0
KWT1 140741Z 10006KT M03/M04 A3033 RMK A01 T10261039  RH  091%=      5-min Rain = 0
KWT1 140742Z 10006KT M03/M04 A3033 RMK A01 T10261039  RH  091%=      5-min Rain = 0
KWT1 140743Z 10007KT M03/M04 A3033 RMK A01 T10271039  RH  091%=      5-min Rain = 0
KWT1 140744Z 10006KT M03/M04 A3033 RMK A01 T10271039  RH  091%=      5-min Rain = 0
KWT1 140745Z 10006KT M03/M04 A3033 RMK A01 T10271039  RH  091%=      5-min Rain = 0
KWT1 140746Z 09007KT M03/M04 A3033 RMK A01 T10281040  RH  091%=      5-min Rain = 0
KWT1 140747Z 09006KT M03/M04 A3033 RMK A01 T10271039  RH  092%=      5-min Rain = 0
KWT1 140748Z 09006KT M03/M04 A3033 RMK A01 T10271039  RH  092%=      5-min Rain = 0
KWT1 140749Z 09006KT M03/M04 A3033 RMK A01 T10281039  RH  092%=      5-min Rain = 0
KWT1 140750Z 10005KT M03/M04 A3034 RMK A01 T10281039  RH  092%=      5-min Rain = 0
KWT1 140751Z 09007KT M03/M04 A3034 RMK A01 T10281040  RH  092%=      5-min Rain = 0
KWT1 140752Z 10006KT M03/M04 A3034 RMK A01 T10281040  RH  092%=      5-min Rain = 0
KWT1 140753Z 09006KT M03/M04 A3034 RMK A01 T10281039  RH  092%=      5-min Rain = 0
KWT1 140754Z 09006KT M03/M04 A3034 RMK A01 T10281040  RH  092%=      5-min Rain = 0
KWT1 140755Z 09006KT M03/M04 A3034 RMK A01 T10281040  RH  091%=      5-min Rain = 0
KWT1 140756Z 09006KT M03/M04 A3033 RMK A01 T10281041  RH  091%=      5-min Rain = 0
KWT1 140757Z 10005KT M03/M04 A3034 RMK A01 T10291041  RH  091%=      5-min Rain = 0
KWT1 140758Z 09006KT M03/M04 A3034 RMK A01 T10291041  RH  091%=      5-min Rain = 0
KWT1 140759Z 09005KT M03/M04 A3034 RMK A01 T10291041  RH  092%=      5-min Rain = 0
KWT1 140800Z 09005KT M03/M04 A3034 RMK A01 T10291041  RH  091%=      5-min Rain = 0
KWT1 140801Z 09006KT M03/M04 A3034 RMK A01 T10301042  RH  091%=      5-min Rain = 0
KWT1 140802Z 09006KT M03/M04 A3034 RMK A01 T10301042  RH  092%=      5-min Rain = 0
KWT1 140803Z 09006KT M03/M04 A3034 RMK A01 T10301042  RH  092%=      5-min Rain = 0
KWT1 140804Z 09005KT M03/M04 A3034 RMK A01 T10301041  RH  092%=      5-min Rain = 0
KWT1 140805Z 09006KT M03/M04 A3034 RMK A01 T10301042  RH  092%=      5-min Rain = 0
KWT1 140806Z 09006KT M03/M04 A3034 RMK A01 T10301042  RH  092%=      5-min Rain = 0
KWT1 140807Z 10006KT M03/M04 A3034 RMK A01 T10301042  RH  092%=      5-min Rain = 0
KWT1 140808Z 10006KT M03/M04 A3034 RMK A01 T10301042  RH  092%=      5-min Rain = 0
KWT1 140809Z 10006KT M03/M04 A3034 RMK A01 T10301042  RH  092%=      5-min Rain = 0
KWT1 140810Z 09006KT M03/M04 A3034 RMK A01 T10301042  RH  091%=      5-min Rain = 0
KWT1 140811Z 09006KT M03/M04 A3034 RMK A01 T10301042  RH  091%=      5-min Rain = 0
KWT1 140812Z 09005KT M03/M04 A3034 RMK A01 T10311043  RH  091%=      5-min Rain = 0
KWT1 140813Z 09005KT M03/M04 A3034 RMK A01 T10311043  RH  092%=      5-min Rain = 0
KWT1 140814Z 09005KT M03/M04 A3034 RMK A01 T10321043  RH  092%=      5-min Rain = 0
KWT1 140815Z 09005KT M03/M04 A3034 RMK A01 T10321043  RH  092%=      5-min Rain = 0
KWT1 140816Z 09006KT M03/M04 A3034 RMK A01 T10321043  RH  092%=      5-min Rain = 0
KWT1 140817Z 09005KT M03/M04 A3034 RMK A01 T10321043  RH  092%=      5-min Rain = 0
KWT1 140818Z 10005KT M03/M04 A3034 RMK A01 T10321043  RH  092%=      5-min Rain = 0
KWT1 140819Z 10005KT M03/M04 A3034 RMK A01 T10331043  RH  092%=      5-min Rain = 0
KWT1 140820Z 09005KT M03/M04 A3034 RMK A01 T10331043  RH  093%=      5-min Rain = 0
KWT1 140821Z 09005KT M03/M04 A3034 RMK A01 T10331043  RH  093%=      5-min Rain = 0
KWT1 140822Z 09005KT M03/M04 A3034 RMK A01 T10331044  RH  093%=      5-min Rain = 0
KWT1 140823Z 09006KT M03/M04 A3034 RMK A01 T10341044  RH  093%=      5-min Rain = 0
KWT1 140824Z 09005KT M03/M04 A3034 RMK A01 T10331043  RH  093%=      5-min Rain = 0
KWT1 140825Z 08006KT M03/M04 A3033 RMK A01 T10331043  RH  093%=      5-min Rain = 0
KWT1 140826Z 08005KT M03/M04 A3033 RMK A01 T10331043  RH  093%=      5-min Rain = 0
KWT1 140827Z 08006KT M03/M04 A3033 RMK A01 T10331044  RH  093%=      5-min Rain = 0
KWT1 140828Z 08006KT M03/M04 A3033 RMK A01 T10331044  RH  093%=      5-min Rain = 0
KWT1 140829Z 08006KT M03/M04 A3033 RMK A01 T10331044  RH  093%=      5-min Rain = 0
KWT1 140830Z 08006KT M03/M04 A3033 RMK A01 T10331044  RH  093%=      5-min Rain = 0
KWT1 140831Z 08005KT M03/M04 A3033 RMK A01 T10331044  RH  093%=      5-min Rain = 0
KWT1 140832Z 07006KT M03/M04 A3033 RMK A01 T10331044  RH  092%=      5-min Rain = 0
KWT1 140833Z 08006KT M03/M04 A3033 RMK A01 T10331044  RH  092%=      5-min Rain = 0
KWT1 140834Z 08006KT M03/M04 A3033 RMK A01 T10321043  RH  092%=      5-min Rain = 0
KWT1 140835Z 08004KT M03/M04 A3033 RMK A01 T10321043  RH  092%=      5-min Rain = 0
KWT1 140836Z 08005KT M03/M04 A3033 RMK A01 T10321044  RH  092%=      5-min Rain = 0
KWT1 140837Z 08005KT M03/M04 A3033 RMK A01 T10321044  RH  092%=      5-min Rain = 0
KWT1 140838Z 08005KT M03/M04 A3033 RMK A01 T10321044  RH  091%=      5-min Rain = 0
KWT1 140839Z 08006KT M03/M04 A3033 RMK A01 T10321044  RH  092%=      5-min Rain = 0
KWT1 140840Z 08006KT M03/M04 A3033 RMK A01 T10331044  RH  092%=      5-min Rain = 0
KWT1 140841Z 08006KT M03/M04 A3033 RMK A01 T10321044  RH  092%=      5-min Rain = 0
KWT1 140842Z 08006KT M03/M05 A3033 RMK A01 T10331045  RH  091%=      5-min Rain = 0
KWT1 140843Z 08006KT M03/M05 A3033 RMK A01 T10321045  RH  091%=      5-min Rain = 0
KWT1 140844Z 08005KT M03/M05 A3033 RMK A01 T10331045  RH  091%=      5-min Rain = 0
KWT1 140845Z 08005KT M03/M05 A3033 RMK A01 T10331046  RH  091%=      5-min Rain = 0
KWT1 140846Z 08005KT M03/M05 A3033 RMK A01 T10331046  RH  091%=      5-min Rain = 0
KWT1 140847Z 08005KT M03/M05 A3033 RMK A01 T10341046  RH  091%=      5-min Rain = 0
KWT1 140848Z 08005KT M03/M05 A3033 RMK A01 T10341046  RH  091%=      5-min Rain = 0
KWT1 140849Z 08005KT M03/M05 A3033 RMK A01 T10341046  RH  091%=      5-min Rain = 0
KWT1 140850Z 08005KT M03/M05 A3033 RMK A01 T10341046  RH  091%=      5-min Rain = 0
KWT1 140851Z 08005KT M03/M05 A3033 RMK A01 T10341046  RH  091%=      5-min Rain = 0
KWT1 140852Z 08005KT M03/M05 A3033 RMK A01 T10341046  RH  091%=      5-min Rain = 0
KWT1 140853Z 07005KT M03/M05 A3033 RMK A01 T10341046  RH  091%=      5-min Rain = 0
KWT1 140854Z 08005KT M03/M05 A3033 RMK A01 T10331046  RH  091%=      5-min Rain = 0
KWT1 140855Z 08005KT M03/M05 A3033 RMK A01 T10331046  RH  091%=      5-min Rain = 0
KWT1 140856Z 07006KT M03/M05 A3033 RMK A01 T10331046  RH  090%=      5-min Rain = 0
KWT1 140857Z 08005KT M03/M05 A3033 RMK A01 T10331047  RH  090%=      5-min Rain = 0
KWT1 140858Z 07006KT M03/M05 A3033 RMK A01 T10331047  RH  090%=      5-min Rain = 0
KWT1 140859Z 07005KT M03/M05 A3033 RMK A01 T10331047  RH  090%=      5-min Rain = 0
KWT1 140900Z 07005KT M03/M05 A3033 RMK A01 T10331047  RH  090%=      5-min Rain = 0
KWT1 140901Z 07005KT M03/M05 A3033 RMK A01 T10331047  RH  090%=      5-min Rain = 0
KWT1 140902Z 07006KT M03/M05 A3033 RMK A01 T10341048  RH  090%=      5-min Rain = 0
KWT1 140903Z 07005KT M03/M05 A3033 RMK A01 T10341048  RH  090%=      5-min Rain = 0
KWT1 140904Z 07005KT M03/M05 A3033 RMK A01 T10341047  RH  090%=      5-min Rain = 0
KWT1 140905Z 07005KT M03/M05 A3033 RMK A01 T10341048  RH  090%=      5-min Rain = 0
KWT1 140906Z 07006KT M03/M05 A3033 RMK A01 T10341047  RH  090%=      5-min Rain = 0
KWT1 140907Z 07006KT M03/M05 A3033 RMK A01 T10341047  RH  090%=      5-min Rain = 0
KWT1 140908Z 08006KT M03/M05 A3033 RMK A01 T10341048  RH  090%=      5-min Rain = 0
KWT1 140909Z 08006KT M03/M05 A3033 RMK A01 T10341048  RH  090%=      5-min Rain = 0
KWT1 140910Z 08005KT M03/M05 A3033 RMK A01 T10341048  RH  090%=      5-min Rain = 0
KWT1 140911Z 08005KT M03/M05 A3033 RMK A01 T10341048  RH  090%=      5-min Rain = 0
KWT1 140912Z 08006KT M04/M05 A3033 RMK A01 T10351048  RH  090%=      5-min Rain = 0
KWT1 140913Z 08006KT M04/M05 A3033 RMK A01 T10351048  RH  090%=      5-min Rain = 0
KWT1 140914Z 08006KT M04/M05 A3033 RMK A01 T10351048  RH  090%=      5-min Rain = 0
KWT1 140915Z 08005KT M03/M05 A3033 RMK A01 T10341048  RH  090%=      5-min Rain = 0
KWT1 140916Z 07005KT M03/M05 A3033 RMK A01 T10341048  RH  090%=      5-min Rain = 0
KWT1 140917Z 07005KT M04/M05 A3033 RMK A01 T10351048  RH  090%=      5-min Rain = 0
KWT1 140918Z 07005KT M04/M05 A3033 RMK A01 T10351048  RH  090%=      5-min Rain = 0
KWT1 140919Z 07005KT M04/M05 A3033 RMK A01 T10351048  RH  090%=      5-min Rain = 0
KWT1 140920Z 07005KT M04/M05 A3033 RMK A01 T10351049  RH  090%=      5-min Rain = 0
KWT1 140921Z 07004KT M04/M05 A3033 RMK A01 T10361049  RH  091%=      5-min Rain = 0
KWT1 140922Z 07005KT M04/M05 A3033 RMK A01 T10361049  RH  091%=      5-min Rain = 0
KWT1 140923Z 08004KT M04/M05 A3033 RMK A01 T10351048  RH  091%=      5-min Rain = 0
KWT1 140924Z 07005KT M04/M05 A3033 RMK A01 T10361049  RH  091%=      5-min Rain = 0
KWT1 140925Z 08005KT M04/M05 A3033 RMK A01 T10361049  RH  091%=      5-min Rain = 0
KWT1 140926Z 08005KT M04/M05 A3033 RMK A01 T10361048  RH  091%=      5-min Rain = 0
KWT1 140927Z 07005KT M04/M05 A3033 RMK A01 T10361048  RH  091%=      5-min Rain = 0
KWT1 140928Z 07005KT M04/M05 A3033 RMK A01 T10351048  RH  091%=      5-min Rain = 0
KWT1 140929Z 07005KT M04/M05 A3033 RMK A01 T10351048  RH  091%=      5-min Rain = 0
KWT1 140930Z 08006KT M04/M05 A3033 RMK A01 T10351047  RH  091%=      5-min Rain = 0
KWT1 140931Z 08006KT M04/M05 A3033 RMK A01 T10351047  RH  091%=      5-min Rain = 0
KWT1 140932Z 08006KT M04/M05 A3033 RMK A01 T10351047  RH  091%=      5-min Rain = 0
KWT1 140933Z 08005KT M03/M05 A3033 RMK A01 T10341047  RH  091%=      5-min Rain = 0
KWT1 140934Z 08005KT M03/M05 A3033 RMK A01 T10341047  RH  091%=      5-min Rain = 0
KWT1 140935Z 08004KT M03/M05 A3033 RMK A01 T10341048  RH  091%=      5-min Rain = 0
KWT1 140936Z 08004KT M04/M05 A3033 RMK A01 T10351048  RH  090%=      5-min Rain = 0
KWT1 140937Z 08005KT M04/M05 A3033 RMK A01 T10351049  RH  090%=      5-min Rain = 0
KWT1 140938Z 08005KT M04/M05 A3033 RMK A01 T10351049  RH  090%=      5-min Rain = 0
KWT1 140939Z 07006KT M04/M05 A3033 RMK A01 T10351049  RH  090%=      5-min Rain = 0
KWT1 140940Z 07005KT M04/M05 A3033 RMK A01 T10351048  RH  090%=      5-min Rain = 0
KWT1 140941Z 07006KT M04/M05 A3033 RMK A01 T10351049  RH  090%=      5-min Rain = 0
KWT1 140942Z 07006KT M04/M05 A3033 RMK A01 T10351049  RH  090%=      5-min Rain = 0
KWT1 140943Z 07005KT M04/M05 A3033 RMK A01 T10351049  RH  090%=      5-min Rain = 0
KWT1 140944Z 07005KT M04/M05 A3033 RMK A01 T10351049  RH  090%=      5-min Rain = 0
KWT1 140945Z 07004KT M04/M05 A3033 RMK A01 T10361049  RH  090%=      5-min Rain = 0
KWT1 140946Z 07004KT M04/M05 A3033 RMK A01 T10361049  RH  090%=      5-min Rain = 0
KWT1 140947Z 07005KT M04/M05 A3033 RMK A01 T10361049  RH  090%=      5-min Rain = 0
KWT1 140948Z 07005KT M04/M05 A3033 RMK A01 T10361050  RH  090%=      5-min Rain = 0
KWT1 140949Z 07005KT M04/M05 A3033 RMK A01 T10361049  RH  091%=      5-min Rain = 0
KWT1 140950Z 06005KT M04/M05 A3033 RMK A01 T10361049  RH  090%=      5-min Rain = 0
KWT1 140951Z 06005KT M04/M05 A3033 RMK A01 T10361050  RH  090%=      5-min Rain = 0
KWT1 140952Z 06004KT M04/M05 A3033 RMK A01 T10361049  RH  090%=      5-min Rain = 0
KWT1 140953Z 07004KT M04/M05 A3033 RMK A01 T10361050  RH  090%=      5-min Rain = 0
KWT1 140954Z 06004KT M04/M05 A3033 RMK A01 T10361050  RH  090%=      5-min Rain = 0
KWT1 140955Z 06004KT M04/M05 A3033 RMK A01 T10361050  RH  090%=      5-min Rain = 0
KWT1 140956Z 06004KT M04/M05 A3033 RMK A01 T10361050  RH  090%=      5-min Rain = 0
KWT1 140957Z 06004KT M04/M05 A3033 RMK A01 T10361050  RH  090%=      5-min Rain = 0
KWT1 140958Z 06004KT M04/M05 A3033 RMK A01 T10361050  RH  091%=      5-min Rain = 0
KWT1 140959Z 06004KT M04/M05 A3033 RMK A01 T10371050  RH  091%=      5-min Rain = 0
KWT1 141000Z 06004KT M04/M05 A3033 RMK A01 T10371050  RH  091%=      5-min Rain = 0
KWT1 141001Z 06005KT M04/M05 A3033 RMK A01 T10371050  RH  091%=      5-min Rain = 0
KWT1 141002Z 06005KT M04/M05 A3033 RMK A01 T10381050  RH  091%=      5-min Rain = 0
KWT1 141003Z 07006KT M04/M05 A3033 RMK A01 T10381050  RH  091%=      5-min Rain = 0
KWT1 141004Z 07005KT M04/M05 A3033 RMK A01 T10381050  RH  091%=      5-min Rain = 0
KWT1 141005Z 07005KT M04/M05 A3033 RMK A01 T10371050  RH  091%=      5-min Rain = 0
KWT1 141006Z 07005KT M04/M05 A3033 RMK A01 T10371050  RH  091%=      5-min Rain = 0
KWT1 141007Z 06005KT M04/M05 A3033 RMK A01 T10371051  RH  090%=      5-min Rain = 0
KWT1 141008Z 06005KT M04/M05 A3033 RMK A01 T10371051  RH  090%=      5-min Rain = 0
KWT1 141009Z 06005KT M04/M05 A3033 RMK A01 T10371051  RH  090%=      5-min Rain = 0
KWT1 141010Z 06005KT M04/M05 A3033 RMK A01 T10371052  RH  090%=      5-min Rain = 0
KWT1 141011Z 06005KT M04/M05 A3033 RMK A01 T10371052  RH  090%=      5-min Rain = 0
KWT1 141012Z 06004KT M04/M05 A3033 RMK A01 T10371052  RH  090%=      5-min Rain = 0
KWT1 141013Z 06004KT M04/M05 A3033 RMK A01 T10371052  RH  090%=      5-min Rain = 0
KWT1 141014Z 06003KT M04/M05 A3033 RMK A01 T10381052  RH  090%=      5-min Rain = 0
KWT1 141015Z 06003KT M04/M05 A3033 RMK A01 T10381052  RH  090%=      5-min Rain = 0
KWT1 141016Z 05003KT M04/M05 A3033 RMK A01 T10381052  RH  090%=      5-min Rain = 0
KWT1 141017Z 06003KT M04/M05 A3033 RMK A01 T10381052  RH  090%=      5-min Rain = 0
KWT1 141018Z 06003KT M04/M05 A3033 RMK A01 T10381051  RH  091%=      5-min Rain = 0
KWT1 141019Z 06003KT M04/M05 A3033 RMK A01 T10381051  RH  091%=      5-min Rain = 0
KWT1 141020Z 06003KT M04/M05 A3033 RMK A01 T10381050  RH  092%=      5-min Rain = 0
KWT1 141021Z 06003KT M04/M05 A3033 RMK A01 T10391050  RH  092%=      5-min Rain = 0
KWT1 141022Z 05003KT M04/M05 A3033 RMK A01 T10391051  RH  092%=      5-min Rain = 0
KWT1 141023Z 05004KT M04/M05 A3033 RMK A01 T10391051  RH  092%=      5-min Rain = 0
KWT1 141024Z 05003KT M04/M05 A3033 RMK A01 T10391051  RH  092%=      5-min Rain = 0
KWT1 141025Z 06004KT M04/M05 A3033 RMK A01 T10391051  RH  092%=      5-min Rain = 0
KWT1 141026Z 05004KT M04/M05 A3033 RMK A01 T10401051  RH  092%=      5-min Rain = 0
KWT1 141027Z 05004KT M04/M05 A3033 RMK A01 T10401051  RH  092%=      5-min Rain = 0
KWT1 141028Z 06003KT M04/M05 A3033 RMK A01 T10401051  RH  092%=      5-min Rain = 0
KWT1 141029Z 05003KT M04/M05 A3033 RMK A01 T10401051  RH  092%=      5-min Rain = 0
KWT1 141030Z 05003KT M04/M05 A3033 RMK A01 T10401052  RH  092%=      5-min Rain = 0
KWT1 141031Z 05003KT M04/M05 A3033 RMK A01 T10401052  RH  092%=      5-min Rain = 0
KWT1 141032Z 05003KT M04/M05 A3033 RMK A01 T10411052  RH  092%=      5-min Rain = 0
KWT1 141033Z 05003KT M04/M05 A3033 RMK A01 T10401051  RH  092%=      5-min Rain = 0
KWT1 141034Z 04003KT M04/M05 A3033 RMK A01 T10411051  RH  093%=      5-min Rain = 0
KWT1 141035Z 04003KT M04/M05 A3033 RMK A01 T10411051  RH  093%=      5-min Rain = 0
KWT1 141036Z 04004KT M04/M05 A3033 RMK A01 T10411052  RH  093%=      5-min Rain = 0
KWT1 141037Z 04004KT M04/M05 A3033 RMK A01 T10421052  RH  092%=      5-min Rain = 0
KWT1 141038Z 04004KT M04/M05 A3033 RMK A01 T10421053  RH  092%=      5-min Rain = 0
KWT1 141039Z 04004KT M04/M05 A3033 RMK A01 T10431053  RH  092%=      5-min Rain = 0
KWT1 141040Z 04004KT M04/M05 A3033 RMK A01 T10431054  RH  092%=      5-min Rain = 0
KWT1 141041Z 04004KT M04/M05 A3033 RMK A01 T10431054  RH  092%=      5-min Rain = 0
KWT1 141042Z 04004KT M04/M05 A3033 RMK A01 T10441054  RH  092%=      5-min Rain = 0
KWT1 141043Z 03003KT M04/M05 A3033 RMK A01 T10441054  RH  092%=      5-min Rain = 0
KWT1 141044Z 04003KT M04/M05 A3033 RMK A01 T10441054  RH  092%=      5-min Rain = 0
KWT1 141045Z 04003KT M04/M05 A3033 RMK A01 T10441054  RH  092%=      5-min Rain = 0
KWT1 141046Z 04003KT M04/M05 A3033 RMK A01 T10431054  RH  092%=      5-min Rain = 0
KWT1 141047Z 04003KT M04/M05 A3033 RMK A01 T10431054  RH  092%=      5-min Rain = 0
KWT1 141048Z 04003KT M04/M05 A3033 RMK A01 T10431054  RH  092%=      5-min Rain = 0
KWT1 141049Z 04003KT M04/M05 A3033 RMK A01 T10441054  RH  092%=      5-min Rain = 0
KWT1 141050Z 04003KT M04/M05 A3033 RMK A01 T10431053  RH  093%=      5-min Rain = 0
KWT1 141051Z 04003KT M04/M05 A3033 RMK A01 T10431053  RH  092%=      5-min Rain = 0
KWT1 141052Z 04003KT M04/M05 A3033 RMK A01 T10431054  RH  092%=      5-min Rain = 0
KWT1 141053Z 04004KT M04/M05 A3033 RMK A01 T10431053  RH  092%=      5-min Rain = 0
KWT1 141054Z 04004KT M04/M05 A3033 RMK A01 T10431053  RH  093%=      5-min Rain = 0
KWT1 141055Z 04005KT M04/M05 A3033 RMK A01 T10431053  RH  093%=      5-min Rain = 0
KWT1 141056Z 04004KT M04/M05 A3033 RMK A01 T10431053  RH  093%=      5-min Rain = 0
KWT1 141057Z 04004KT M04/M05 A3033 RMK A01 T10441053  RH  093%=      5-min Rain = 0
KWT1 141058Z 04004KT M04/M05 A3033 RMK A01 T10441054  RH  093%=      5-min Rain = 0
KWT1 141059Z 04004KT M04/M05 A3033 RMK A01 T10441053  RH  093%=      5-min Rain = 0
KWT1 141100Z 04004KT M04/M05 A3033 RMK A01 T10441053  RH  094%=      5-min Rain = 0
KWT1 141101Z 04004KT M04/M05 A3033 RMK A01 T10431052  RH  094%=      5-min Rain = 0
KWT1 141102Z 04003KT M04/M05 A3033 RMK A01 T10431052  RH  094%=      5-min Rain = 0
KWT1 141103Z 04004KT M04/M05 A3033 RMK A01 T10431052  RH  094%=      5-min Rain = 0
KWT1 141104Z 04003KT M04/M05 A3033 RMK A01 T10431052  RH  094%=      5-min Rain = 0
KWT1 141105Z 04003KT M04/M05 A3034 RMK A01 T10431052  RH  094%=      5-min Rain = 0
KWT1 141106Z 04004KT M04/M05 A3034 RMK A01 T10431051  RH  094%=      5-min Rain = 0
KWT1 141107Z 03004KT M04/M05 A3034 RMK A01 T10431052  RH  094%=      5-min Rain = 0
KWT1 141108Z 03004KT M04/M05 A3034 RMK A01 T10431051  RH  094%=      5-min Rain = 0
KWT1 141109Z 03004KT M04/M05 A3034 RMK A01 T10421051  RH  094%=      5-min Rain = 0
KWT1 141110Z 03003KT M04/M05 A3034 RMK A01 T10421050  RH  094%=      5-min Rain = 0
KWT1 141111Z 03003KT M04/M05 A3034 RMK A01 T10421050  RH  094%=      5-min Rain = 0
KWT1 141112Z 04004KT M04/M05 A3034 RMK A01 T10421050  RH  094%=      5-min Rain = 0
KWT1 141113Z 04003KT M04/M05 A3034 RMK A01 T10421050  RH  094%=      5-min Rain = 0
KWT1 141114Z 04002KT M04/M05 A3034 RMK A01 T10411050  RH  094%=      5-min Rain = 0
KWT1 141115Z 04003KT M04/M05 A3034 RMK A01 T10411049  RH  094%=      5-min Rain = 0
KWT1 141116Z 04003KT M04/M05 A3034 RMK A01 T10401048  RH  094%=      5-min Rain = 0
KWT1 141117Z 04003KT M04/M05 A3034 RMK A01 T10401048  RH  094%=      5-min Rain = 0
KWT1 141118Z 04004KT M04/M05 A3034 RMK A01 T10391048  RH  094%=      5-min Rain = 0
KWT1 141119Z 03003KT M04/M05 A3034 RMK A01 T10391048  RH  094%=      5-min Rain = 0
KWT1 141120Z 04003KT M04/M05 A3034 RMK A01 T10391047  RH  094%=      5-min Rain = 0
KWT1 141121Z 04004KT M04/M05 A3034 RMK A01 T10391048  RH  094%=      5-min Rain = 0
KWT1 141122Z 05004KT M04/M05 A3034 RMK A01 T10381048  RH  093%=      5-min Rain = 0
KWT1 141123Z 04004KT M04/M05 A3034 RMK A01 T10381047  RH  093%=      5-min Rain = 0
KWT1 141124Z 04004KT M04/M05 A3034 RMK A01 T10381048  RH  093%=      5-min Rain = 0
KWT1 141125Z 04004KT M04/M05 A3034 RMK A01 T10381049  RH  092%=      5-min Rain = 0
KWT1 141126Z 04004KT M04/M05 A3034 RMK A01 T10371049  RH  092%=      5-min Rain = 0
KWT1 141127Z 04004KT M04/M05 A3034 RMK A01 T10371048  RH  092%=      5-min Rain = 0
KWT1 141128Z 04004KT M04/M05 A3034 RMK A01 T10371049  RH  092%=      5-min Rain = 0
KWT1 141129Z 04004KT M04/M05 A3034 RMK A01 T10361048  RH  092%=      5-min Rain = 0
KWT1 141130Z 05004KT M04/M05 A3035 RMK A01 T10361048  RH  092%=      5-min Rain = 0
KWT1 141131Z 04005KT M04/M05 A3035 RMK A01 T10371048  RH  092%=      5-min Rain = 0
KWT1 141132Z 04005KT M04/M05 A3034 RMK A01 T10361048  RH  092%=      5-min Rain = 0
KWT1 141133Z 04005KT M04/M05 A3034 RMK A01 T10361048  RH  092%=      5-min Rain = 0
KWT1 141134Z 04004KT M04/M05 A3034 RMK A01 T10361048  RH  091%=      5-min Rain = 0
KWT1 141135Z 05005KT M04/M05 A3034 RMK A01 T10361048  RH  091%=      5-min Rain = 0
KWT1 141136Z 05005KT M04/M05 A3034 RMK A01 T10361049  RH  091%=      5-min Rain = 0
KWT1 141137Z 04005KT M04/M05 A3035 RMK A01 T10361049  RH  091%=      5-min Rain = 0
KWT1 141138Z 04006KT M04/M05 A3035 RMK A01 T10361048  RH  091%=      5-min Rain = 0
KWT1 141139Z 03006KT M04/M05 A3035 RMK A01 T10361049  RH  091%=      5-min Rain = 0
KWT1 141140Z 04005KT M04/M05 A3035 RMK A01 T10361049  RH  091%=      5-min Rain = 0
KWT1 141141Z 03005KT M04/M05 A3035 RMK A01 T10361049  RH  091%=      5-min Rain = 0
KWT1 141142Z 04005KT M04/M05 A3035 RMK A01 T10361049  RH  091%=      5-min Rain = 0
KWT1 141143Z 04005KT M04/M05 A3035 RMK A01 T10361049  RH  091%=      5-min Rain = 0
KWT1 141144Z 04004KT M04/M05 A3035 RMK A01 T10361049  RH  091%=      5-min Rain = 0
KWT1 141145Z 04004KT M04/M05 A3035 RMK A01 T10351048  RH  091%=      5-min Rain = 0
KWT1 141146Z 05004KT M04/M05 A3035 RMK A01 T10351048  RH  091%=      5-min Rain = 0
KWT1 141147Z 06004KT M04/M05 A3035 RMK A01 T10351048  RH  091%=      5-min Rain = 0
KWT1 141148Z 05003KT M04/M05 A3035 RMK A01 T10351048  RH  091%=      5-min Rain = 0
KWT1 141149Z 05003KT M04/M05 A3035 RMK A01 T10351048  RH  091%=      5-min Rain = 0
KWT1 141150Z 04003KT M04/M05 A3035 RMK A01 T10351048  RH  091%=      5-min Rain = 0
KWT1 141151Z 04004KT M04/M05 A3035 RMK A01 T10351048  RH  091%=      5-min Rain = 0
KWT1 141152Z 06005KT M04/M05 A3035 RMK A01 T10351048  RH  091%=      5-min Rain = 0
KWT1 141153Z 05005KT M04/M05 A3035 RMK A01 T10351049  RH  090%=      5-min Rain = 0
KWT1 141154Z 05004KT M04/M05 A3035 RMK A01 T10351049  RH  090%=      5-min Rain = 0
KWT1 141155Z 05005KT M04/M05 A3035 RMK A01 T10351049  RH  090%=      5-min Rain = 0
KWT1 141156Z 05005KT M04/M05 A3035 RMK A01 T10351050  RH  089%=      5-min Rain = 0
KWT1 141157Z 04004KT M04/M05 A3035 RMK A01 T10351051  RH  089%=      5-min Rain = 0
KWT1 141158Z 04005KT M04/M05 A3035 RMK A01 T10351051  RH  089%=      5-min Rain = 0
KWT1 141159Z 05005KT M04/M05 A3035 RMK A01 T10351051  RH  089%=      5-min Rain = 0
KWT1 141200Z 05004KT M04/M05 A3035 RMK A01 T10351051  RH  089%=      5-min Rain = 0
KWT1 141201Z 04004KT M04/M05 A3035 RMK A01 T10351050  RH  089%=      5-min Rain = 0
KWT1 141202Z 05004KT M04/M05 A3035 RMK A01 T10351050  RH  089%=      5-min Rain = 0
KWT1 141203Z 06004KT M04/M05 A3035 RMK A01 T10351050  RH  089%=      5-min Rain = 0
KWT1 141204Z 06005KT M03/M05 A3035 RMK A01 T10341049  RH  090%=      5-min Rain = 0
KWT1 141205Z 05003KT M03/M05 A3035 RMK A01 T10341049  RH  090%=      5-min Rain = 0
KWT1 141206Z 05005KT M03/M05 A3035 RMK A01 T10341048  RH  090%=      5-min Rain = 0
KWT1 141207Z 06004KT M03/M05 A3035 RMK A01 T10331048  RH  090%=      5-min Rain = 0
KWT1 141208Z 06004KT M03/M05 A3035 RMK A01 T10341049  RH  089%=      5-min Rain = 0
KWT1 141209Z 06004KT M03/M05 A3035 RMK A01 T10341049  RH  089%=      5-min Rain = 0
KWT1 141210Z 06005KT M03/M05 A3035 RMK A01 T10341049  RH  089%=      5-min Rain = 0
KWT1 141211Z 06005KT M03/M05 A3035 RMK A01 T10341049  RH  089%=      5-min Rain = 0
KWT1 141212Z 06006KT M03/M05 A3035 RMK A01 T10341050  RH  089%=      5-min Rain = 0
KWT1 141213Z 06005KT M03/M05 A3035 RMK A01 T10341050  RH  088%=      5-min Rain = 0
KWT1 141214Z 06006KT M03/M05 A3035 RMK A01 T10341050  RH  088%=      5-min Rain = 0
KWT1 141215Z 06005KT M03/M05 A3035 RMK A01 T10341050  RH  088%=      5-min Rain = 0
KWT1 141216Z 05005KT M03/M05 A3035 RMK A01 T10341050  RH  089%=      5-min Rain = 0
KWT1 141217Z 05006KT M03/M05 A3035 RMK A01 T10341050  RH  089%=      5-min Rain = 0
KWT1 141218Z 05005KT M03/M05 A3035 RMK A01 T10341049  RH  089%=      5-min Rain = 0
KWT1 141219Z 06006KT M03/M05 A3035 RMK A01 T10341050  RH  089%=      5-min Rain = 0
KWT1 141220Z 05006KT M03/M05 A3035 RMK A01 T10341051  RH  088%=      5-min Rain = 0
KWT1 141221Z 06006KT M03/M05 A3035 RMK A01 T10341051  RH  088%=      5-min Rain = 0
KWT1 141222Z 05006KT M03/M05 A3035 RMK A01 T10341051  RH  088%=      5-min Rain = 0
KWT1 141223Z 05005KT M03/M05 A3035 RMK A01 T10341051  RH  088%=      5-min Rain = 0
KWT1 141224Z 06005KT M03/M05 A3035 RMK A01 T10341051  RH  088%=      5-min Rain = 0
KWT1 141225Z 06004KT M03/M05 A3035 RMK A01 T10341050  RH  089%=      5-min Rain = 0
KWT1 141226Z 06004KT M03/M05 A3035 RMK A01 T10341050  RH  089%=      5-min Rain = 0
KWT1 141227Z 06004KT M03/M05 A3035 RMK A01 T10341050  RH  089%=      5-min Rain = 0
KWT1 141228Z 05004KT M03/M05 A3035 RMK A01 T10341050  RH  089%=      5-min Rain = 0
KWT1 141229Z 05005KT M03/M05 A3035 RMK A01 T10341050  RH  089%=      5-min Rain = 0
KWT1 141230Z 04005KT M03/M05 A3035 RMK A01 T10341050  RH  089%=      5-min Rain = 0
KWT1 141231Z 04005KT M03/M05 A3035 RMK A01 T10341049  RH  089%=      5-min Rain = 0
KWT1 141232Z 04005KT M03/M05 A3035 RMK A01 T10341049  RH  089%=      5-min Rain = 0
KWT1 141233Z 05004KT M03/M05 A3035 RMK A01 T10341049  RH  089%=      5-min Rain = 0
KWT1 141234Z 05005KT M03/M05 A3036 RMK A01 T10341049  RH  090%=      5-min Rain = 0
KWT1 141235Z 05004KT M03/M05 A3036 RMK A01 T10341048  RH  090%=      5-min Rain = 0
KWT1 141236Z 06004KT M03/M05 A3036 RMK A01 T10341049  RH  089%=      5-min Rain = 0
KWT1 141237Z 05003KT M03/M05 A3036 RMK A01 T10341049  RH  090%=      5-min Rain = 0
KWT1 141238Z 04004KT M03/M05 A3036 RMK A01 T10341048  RH  090%=      5-min Rain = 0
KWT1 141239Z 04003KT M03/M05 A3036 RMK A01 T10341048  RH  090%=      5-min Rain = 0
KWT1 141240Z 05004KT M03/M05 A3036 RMK A01 T10341048  RH  090%=      5-min Rain = 0
KWT1 141241Z 05004KT M03/M05 A3036 RMK A01 T10341048  RH  090%=      5-min Rain = 0
KWT1 141242Z 05004KT M03/M05 A3036 RMK A01 T10341048  RH  090%=      5-min Rain = 0
KWT1 141243Z 05004KT M03/M05 A3036 RMK A01 T10341049  RH  090%=      5-min Rain = 0
KWT1 141244Z 04005KT M03/M05 A3036 RMK A01 T10341049  RH  090%=      5-min Rain = 0
KWT1 141245Z 04005KT M03/M05 A3036 RMK A01 T10341049  RH  090%=      5-min Rain = 0
KWT1 141246Z 04004KT M04/M05 A3036 RMK A01 T10351049  RH  090%=      5-min Rain = 0
KWT1 141247Z 04004KT M03/M05 A3036 RMK A01 T10341049  RH  090%=      5-min Rain = 0
KWT1 141248Z 04004KT M04/M05 A3036 RMK A01 T10351049  RH  090%=      5-min Rain = 0
KWT1 141249Z 05004KT M03/M05 A3036 RMK A01 T10341048  RH  090%=      5-min Rain = 0
KWT1 141250Z 05004KT M03/M05 A3036 RMK A01 T10341048  RH  090%=      5-min Rain = 0
KWT1 141251Z 05005KT M04/M05 A3036 RMK A01 T10351049  RH  090%=      5-min Rain = 0
KWT1 141252Z 05004KT M04/M05 A3036 RMK A01 T10351049  RH  090%=      5-min Rain = 0
KWT1 141253Z 04005KT M04/M05 A3036 RMK A01 T10351049  RH  090%=      5-min Rain = 0
KWT1 141254Z 04005KT M04/M05 A3036 RMK A01 T10351050  RH  090%=      5-min Rain = 0
KWT1 141255Z 03004KT M04/M05 A3036 RMK A01 T10351049  RH  090%=      5-min Rain = 0
KWT1 141256Z 03005KT M04/M05 A3036 RMK A01 T10351049  RH  090%=      5-min Rain = 0
KWT1 141257Z 05004KT M04/M05 A3036 RMK A01 T10351049  RH  090%=      5-min Rain = 0
KWT1 141258Z 05004KT M04/M05 A3036 RMK A01 T10351049  RH  090%=      5-min Rain = 0
KWT1 141259Z 05004KT M04/M05 A3036 RMK A01 T10351049  RH  090%=      5-min Rain = 0
KWT1 141300Z 05004KT M04/M05 A3036 RMK A01 T10351049  RH  090%=      5-min Rain = 0
KWT1 141301Z 06003KT M04/M05 A3036 RMK A01 T10351050  RH  090%=      5-min Rain = 0
KWT1 141302Z 05003KT M04/M05 A3036 RMK A01 T10351050  RH  090%=      5-min Rain = 0
KWT1 141303Z 04004KT M04/M05 A3036 RMK A01 T10351050  RH  090%=      5-min Rain = 0
KWT1 141304Z 06004KT M04/M05 A3036 RMK A01 T10351050  RH  090%=      5-min Rain = 0
KWT1 141305Z 05005KT M04/M05 A3036 RMK A01 T10351050  RH  090%=      5-min Rain = 0
KWT1 141306Z 05004KT M04/M05 A3036 RMK A01 T10351051  RH  089%=      5-min Rain = 0
KWT1 141307Z 06004KT M04/M05 A3036 RMK A01 T10351051  RH  089%=      5-min Rain = 0
KWT1 141308Z 06004KT M04/M05 A3036 RMK A01 T10361051  RH  089%=      5-min Rain = 0
KWT1 141309Z 05004KT M04/M05 A3036 RMK A01 T10361051  RH  089%=      5-min Rain = 0
KWT1 141310Z 06005KT M04/M05 A3036 RMK A01 T10361052  RH  089%=      5-min Rain = 0
KWT1 141311Z 07004KT M04/M05 A3036 RMK A01 T10361052  RH  089%=      5-min Rain = 0
KWT1 141312Z 06004KT M04/M05 A3036 RMK A01 T10361053  RH  089%=      5-min Rain = 0
KWT1 141313Z 06004KT M04/M05 A3036 RMK A01 T10361053  RH  089%=      5-min Rain = 0
KWT1 141314Z 06004KT M04/M05 A3036 RMK A01 T10361052  RH  089%=      5-min Rain = 0
KWT1 141315Z 04003KT M04/M05 A3036 RMK A01 T10361052  RH  089%=      5-min Rain = 0
KWT1 141316Z 06003KT M04/M05 A3036 RMK A01 T10361052  RH  089%=      5-min Rain = 0
KWT1 141317Z 05003KT M04/M05 A3036 RMK A01 T10361052  RH  089%=      5-min Rain = 0
KWT1 141318Z 04004KT M04/M05 A3036 RMK A01 T10361052  RH  089%=      5-min Rain = 0
KWT1 141319Z 05005KT M04/M05 A3036 RMK A01 T10361053  RH  088%=      5-min Rain = 0
KWT1 141320Z 05005KT M04/M05 A3036 RMK A01 T10361052  RH  088%=      5-min Rain = 0
KWT1 141321Z 05004KT M04/M05 A3036 RMK A01 T10361052  RH  089%=      5-min Rain = 0
KWT1 141322Z 06004KT M04/M05 A3036 RMK A01 T10361052  RH  089%=      5-min Rain = 0
KWT1 141323Z 07003KT M04/M05 A3037 RMK A01 T10361052  RH  089%=      5-min Rain = 0
KWT1 141324Z 07003KT M04/M05 A3037 RMK A01 T10361052  RH  089%=      5-min Rain = 0
KWT1 141325Z 06003KT M04/M05 A3037 RMK A01 T10361052  RH  089%=      5-min Rain = 0
KWT1 141326Z 06004KT M04/M05 A3037 RMK A01 T10361052  RH  089%=      5-min Rain = 0
KWT1 141327Z 06003KT M04/M05 A3037 RMK A01 T10361052  RH  089%=      5-min Rain = 0
KWT1 141328Z 06004KT M04/M05 A3037 RMK A01 T10361052  RH  089%=      5-min Rain = 0
KWT1 141329Z 07003KT M04/M05 A3037 RMK A01 T10361053  RH  088%=      5-min Rain = 0
KWT1 141330Z 07003KT M04/M05 A3037 RMK A01 T10361053  RH  088%=      5-min Rain = 0
KWT1 141331Z 06004KT M04/M05 A3037 RMK A01 T10361052  RH  089%=      5-min Rain = 0
KWT1 141332Z 06005KT M04/M05 A3037 RMK A01 T10361052  RH  089%=      5-min Rain = 0
KWT1 141333Z 07004KT M04/M05 A3037 RMK A01 T10361052  RH  089%=      5-min Rain = 0
KWT1 141334Z 07004KT M04/M05 A3037 RMK A01 T10361052  RH  089%=      5-min Rain = 0
KWT1 141335Z 05003KT M04/M05 A3037 RMK A01 T10361052  RH  089%=      5-min Rain = 0
KWT1 141336Z 07002KT M04/M05 A3037 RMK A01 T10361051  RH  089%=      5-min Rain = 0
KWT1 141337Z 07003KT M04/M05 A3037 RMK A01 T10361051  RH  089%=      5-min Rain = 0
KWT1 141338Z 07003KT M04/M05 A3037 RMK A01 T10361051  RH  089%=      5-min Rain = 0
KWT1 141339Z 07003KT M04/M05 A3037 RMK A01 T10361051  RH  089%=      5-min Rain = 0
KWT1 141340Z 06003KT M04/M05 A3037 RMK A01 T10351050  RH  090%=      5-min Rain = 0
KWT1 141341Z 05003KT M04/M05 A3037 RMK A01 T10361050  RH  090%=      5-min Rain = 0
KWT1 141342Z 06003KT M04/M05 A3037 RMK A01 T10351050  RH  089%=      5-min Rain = 0
KWT1 141343Z 06003KT M04/M05 A3037 RMK A01 T10351050  RH  089%=      5-min Rain = 0
KWT1 141344Z 06003KT M04/M05 A3037 RMK A01 T10351051  RH  089%=      5-min Rain = 0
KWT1 141345Z 06004KT M04/M05 A3037 RMK A01 T10361051  RH  089%=      5-min Rain = 0
KWT1 141346Z 06004KT M04/M05 A3037 RMK A01 T10361052  RH  089%=      5-min Rain = 0
KWT1 141347Z 06004KT M04/M05 A3037 RMK A01 T10361052  RH  089%=      5-min Rain = 0
KWT1 141348Z 05004KT M04/M05 A3037 RMK A01 T10361052  RH  089%=      5-min Rain = 0
KWT1 141349Z 06003KT M04/M05 A3037 RMK A01 T10361051  RH  089%=      5-min Rain = 0
KWT1 141350Z 05003KT M04/M05 A3037 RMK A01 T10361051  RH  089%=      5-min Rain = 0
KWT1 141351Z 06003KT M04/M05 A3037 RMK A01 T10361051  RH  089%=      5-min Rain = 0
KWT1 141352Z 06002KT M04/M05 A3037 RMK A01 T10361050  RH  090%=      5-min Rain = 0
KWT1 141353Z 06002KT M04/M05 A3037 RMK A01 T10361050  RH  090%=      5-min Rain = 0
KWT1 141354Z 06002KT M04/M05 A3037 RMK A01 T10361051  RH  089%=      5-min Rain = 0
KWT1 141355Z 05003KT M04/M05 A3037 RMK A01 T10351051  RH  089%=      5-min Rain = 0
KWT1 141356Z 06003KT M04/M05 A3037 RMK A01 T10351050  RH  089%=      5-min Rain = 0
KWT1 141357Z 06003KT M04/M05 A3037 RMK A01 T10351050  RH  089%=      5-min Rain = 0
KWT1 141358Z 05003KT M04/M05 A3037 RMK A01 T10351050  RH  089%=      5-min Rain = 0
KWT1 141359Z 05004KT M04/M05 A3037 RMK A01 T10351051  RH  089%=      5-min Rain = 0
KWT1 141400Z 06003KT M04/M05 A3037 RMK A01 T10351050  RH  089%=      5-min Rain = 0
KWT1 141401Z 05002KT M04/M05 A3037 RMK A01 T10351050  RH  089%=      5-min Rain = 0
KWT1 141402Z 05003KT M04/M05 A3037 RMK A01 T10351050  RH  090%=      5-min Rain = 0
KWT1 141403Z 04003KT M03/M05 A3037 RMK A01 T10341049  RH  090%=      5-min Rain = 0
KWT1 141404Z 04003KT M04/M05 A3037 RMK A01 T10351049  RH  090%=      5-min Rain = 0
KWT1 141405Z 04003KT M04/M05 A3037 RMK A01 T10351050  RH  089%=      5-min Rain = 0
KWT1 141406Z 04003KT M04/M05 A3037 RMK A01 T10351051  RH  089%=      5-min Rain = 0
KWT1 141407Z 05004KT M04/M05 A3037 RMK A01 T10351050  RH  089%=      5-min Rain = 0
KWT1 141408Z 05003KT M04/M05 A3037 RMK A01 T10351049  RH  090%=      5-min Rain = 0
KWT1 141409Z 04004KT M03/M05 A3037 RMK A01 T10341048  RH  090%=      5-min Rain = 0
KWT1 141410Z 04003KT M03/M05 A3037 RMK A01 T10341049  RH  090%=      5-min Rain = 0
KWT1 141411Z 03004KT M03/M05 A3037 RMK A01 T10341049  RH  089%=      5-min Rain = 0
KWT1 141412Z 03003KT M03/M05 A3037 RMK A01 T10341049  RH  089%=      5-min Rain = 0
KWT1 141413Z 04003KT M03/M05 A3037 RMK A01 T10341049  RH  089%=      5-min Rain = 0
KWT1 141414Z 05003KT M03/M05 A3037 RMK A01 T10341049  RH  089%=      5-min Rain = 0
KWT1 141415Z 05003KT M03/M05 A3037 RMK A01 T10341049  RH  090%=      5-min Rain = 0
KWT1 141416Z 04003KT M03/M05 A3037 RMK A01 T10331048  RH  090%=      5-min Rain = 0
KWT1 141417Z 03002KT M03/M05 A3037 RMK A01 T10331048  RH  089%=      5-min Rain = 0
KWT1 141418Z 04002KT M03/M05 A3037 RMK A01 T10331048  RH  089%=      5-min Rain = 0
KWT1 141419Z 04002KT M03/M05 A3037 RMK A01 T10331048  RH  089%=      5-min Rain = 0
KWT1 141420Z 04002KT M03/M05 A3038 RMK A01 T10331047  RH  090%=      5-min Rain = 0
KWT1 141421Z 03002KT M03/M05 A3038 RMK A01 T10331047  RH  089%=      5-min Rain = 0
KWT1 141422Z 04002KT M03/M05 A3037 RMK A01 T10331048  RH  089%=      5-min Rain = 0
KWT1 141423Z 03003KT M03/M05 A3037 RMK A01 T10321047  RH  089%=      5-min Rain = 0
KWT1 141424Z 03004KT M03/M05 A3038 RMK A01 T10321047  RH  089%=      5-min Rain = 0
KWT1 141425Z 04004KT M03/M05 A3038 RMK A01 T10321047  RH  089%=      5-min Rain = 0
KWT1 141426Z 03004KT M03/M05 A3038 RMK A01 T10321048  RH  089%=      5-min Rain = 0
KWT1 141427Z 03003KT M03/M05 A3038 RMK A01 T10321048  RH  089%=      5-min Rain = 0
KWT1 141428Z 03003KT M03/M05 A3038 RMK A01 T10331048  RH  089%=      5-min Rain = 0
KWT1 141429Z 03003KT M03/M05 A3038 RMK A01 T10331048  RH  089%=      5-min Rain = 0
KWT1 141430Z 03003KT M03/M05 A3038 RMK A01 T10321047  RH  089%=      5-min Rain = 0
KWT1 141431Z 04003KT M03/M05 A3038 RMK A01 T10321047  RH  089%=      5-min Rain = 0
KWT1 141432Z 04004KT M03/M05 A3037 RMK A01 T10321046  RH  090%=      5-min Rain = 0
KWT1 141433Z 04004KT M03/M05 A3037 RMK A01 T10311046  RH  090%=      5-min Rain = 0
KWT1 141434Z 05004KT M03/M05 A3037 RMK A01 T10311046  RH  090%=      5-min Rain = 0
KWT1 141435Z 05004KT M03/M05 A3038 RMK A01 T10311046  RH  089%=      5-min Rain = 0
KWT1 141436Z 05004KT M03/M05 A3038 RMK A01 T10311046  RH  089%=      5-min Rain = 0
KWT1 141437Z 05004KT M03/M05 A3038 RMK A01 T10311046  RH  089%=      5-min Rain = 0
KWT1 141438Z 04003KT M03/M05 A3038 RMK A01 T10311046  RH  089%=      5-min Rain = 0
KWT1 141439Z 04004KT M03/M05 A3038 RMK A01 T10301045  RH  090%=      5-min Rain = 0
KWT1 141440Z 05004KT M03/M05 A3038 RMK A01 T10301045  RH  090%=      5-min Rain = 0
KWT1 141441Z 06003KT M03/M05 A3038 RMK A01 T10301045  RH  090%=      5-min Rain = 0
KWT1 141442Z 06003KT M03/M04 A3038 RMK A01 T10291043  RH  090%=      5-min Rain = 0
KWT1 141443Z 06003KT M03/M04 A3038 RMK A01 T10291043  RH  090%=      5-min Rain = 0
KWT1 141444Z 06002KT M03/M04 A3038 RMK A01 T10291044  RH  089%=      5-min Rain = 0
KWT1 141445Z 05003KT M03/M04 A3038 RMK A01 T10291044  RH  089%=      5-min Rain = 0
KWT1 141446Z 06003KT M03/M04 A3038 RMK A01 T10291044  RH  089%=      5-min Rain = 0
KWT1 141447Z 07002KT M03/M04 A3038 RMK A01 T10291044  RH  089%=      5-min Rain = 0
KWT1 141448Z 06002KT M03/M04 A3038 RMK A01 T10281044  RH  089%=      5-min Rain = 0
KWT1 141449Z 04002KT M03/M04 A3038 RMK A01 T10291044  RH  089%=      5-min Rain = 0
KWT1 141450Z 03002KT M03/M04 A3038 RMK A01 T10281042  RH  090%=      5-min Rain = 0
KWT1 141451Z 04003KT M03/M04 A3038 RMK A01 T10271042  RH  090%=      5-min Rain = 0
KWT1 141452Z 04002KT M03/M04 A3038 RMK A01 T10281043  RH  089%=      5-min Rain = 0
KWT1 141453Z 05002KT M03/M04 A3038 RMK A01 T10281044  RH  089%=      5-min Rain = 0
KWT1 141454Z 06002KT M03/M04 A3038 RMK A01 T10281044  RH  089%=      5-min Rain = 0
KWT1 141455Z 06003KT M03/M04 A3038 RMK A01 T10281044  RH  089%=      5-min Rain = 0
KWT1 141456Z 07002KT M03/M04 A3038 RMK A01 T10271043  RH  089%=      5-min Rain = 0
KWT1 141457Z 06003KT M03/M04 A3038 RMK A01 T10271042  RH  089%=      5-min Rain = 0
KWT1 141458Z 06004KT M03/M04 A3038 RMK A01 T10271041  RH  090%=      5-min Rain = 0
KWT1 141459Z 06003KT M03/M04 A3038 RMK A01 T10271042  RH  089%=      5-min Rain = 0
KWT1 141500Z 06003KT M03/M04 A3038 RMK A01 T10271043  RH  089%=      5-min Rain = 0
KWT1 141501Z 06002KT M03/M04 A3038 RMK A01 T10271043  RH  089%=      5-min Rain = 0
KWT1 141502Z 05002KT M03/M04 A3038 RMK A01 T10271043  RH  089%=      5-min Rain = 0
KWT1 141503Z 05002KT M03/M04 A3038 RMK A01 T10271043  RH  089%=      5-min Rain = 0
KWT1 141504Z 05003KT M03/M04 A3038 RMK A01 T10271043  RH  089%=      5-min Rain = 0
KWT1 141505Z 05002KT M03/M04 A3038 RMK A01 T10261042  RH  089%=      5-min Rain = 0
KWT1 141506Z 05002KT M03/M04 A3038 RMK A01 T10261042  RH  089%=      5-min Rain = 0
KWT1 141507Z 05004KT M03/M04 A3038 RMK A01 T10261041  RH  089%=      5-min Rain = 0
KWT1 141508Z 06003KT M03/M04 A3038 RMK A01 T10261042  RH  089%=      5-min Rain = 0
KWT1 141509Z 05003KT M03/M04 A3038 RMK A01 T10261043  RH  088%=      5-min Rain = 0
KWT1 141510Z 04004KT M03/M04 A3038 RMK A01 T10261041  RH  089%=      5-min Rain = 0
KWT1 141511Z 05003KT M03/M04 A3038 RMK A01 T10251040  RH  089%=      5-min Rain = 0
KWT1 141512Z 05004KT M03/M04 A3038 RMK A01 T10251041  RH  089%=      5-min Rain = 0
KWT1 141513Z 05003KT M03/M04 A3038 RMK A01 T10251041  RH  089%=      5-min Rain = 0
KWT1 141514Z 05002KT M03/M04 A3038 RMK A01 T10251040  RH  089%=      5-min Rain = 0
KWT1 141515Z 06003KT M02/M04 A3038 RMK A01 T10241040  RH  089%=      5-min Rain = 0
KWT1 141516Z 07002KT M02/M04 A3038 RMK A01 T10241040  RH  089%=      5-min Rain = 0
KWT1 141517Z 08003KT M02/M04 A3038 RMK A01 T10231038  RH  090%=      5-min Rain = 0
KWT1 141518Z 08003KT M02/M04 A3038 RMK A01 T10231037  RH  090%=      5-min Rain = 0
KWT1 141519Z 07003KT M02/M04 A3038 RMK A01 T10221038  RH  089%=      5-min Rain = 0
KWT1 141520Z 06003KT M02/M04 A3038 RMK A01 T10231040  RH  088%=      5-min Rain = 0
KWT1 141521Z 05002KT M02/M04 A3038 RMK A01 T10231040  RH  088%=      5-min Rain = 0
KWT1 141522Z 06002KT M02/M04 A3038 RMK A01 T10231040  RH  088%=      5-min Rain = 0
KWT1 141523Z 07003KT M02/M04 A3038 RMK A01 T10241040  RH  088%=      5-min Rain = 0
KWT1 141524Z 11002KT M02/M04 A3038 RMK A01 T10231039  RH  089%=      5-min Rain = 0
KWT1 141525Z 10002KT M02/M04 A3038 RMK A01 T10221037  RH  090%=      5-min Rain = 0
KWT1 141526Z 09003KT M02/M04 A3038 RMK A01 T10211036  RH  090%=      5-min Rain = 0
KWT1 141527Z 10003KT M02/M04 A3038 RMK A01 T10221038  RH  089%=      5-min Rain = 0
KWT1 141528Z 08003KT M02/M04 A3038 RMK A01 T10211037  RH  089%=      5-min Rain = 0
KWT1 141529Z 07002KT M02/M04 A3038 RMK A01 T10211037  RH  089%=      5-min Rain = 0
KWT1 141530Z 08003KT M02/M04 A3038 RMK A01 T10211036  RH  090%=      5-min Rain = 0
KWT1 141531Z 09004KT M02/M04 A3039 RMK A01 T10211036  RH  089%=      5-min Rain = 0
KWT1 141532Z 10006KT M02/M04 A3039 RMK A01 T10201035  RH  090%=      5-min Rain = 0
KWT1 141533Z 09004KT M02/M04 A3038 RMK A01 T10201035  RH  090%=      5-min Rain = 0
KWT1 141534Z 07004KT M02/M04 A3038 RMK A01 T10211036  RH  089%=      5-min Rain = 0
KWT1 141535Z 08004KT M02/M04 A3038 RMK A01 T10211036  RH  090%=      5-min Rain = 0
KWT1 141536Z 06004KT M02/M04 A3038 RMK A01 T10211035  RH  090%=      5-min Rain = 0
KWT1 141537Z 07005KT M02/M03 A3038 RMK A01 T10201034  RH  090%=      5-min Rain = 0
KWT1 141538Z 06005KT M02/M03 A3038 RMK A01 T10201034  RH  090%=      5-min Rain = 0
KWT1 141539Z 07005KT M02/M04 A3038 RMK A01 T10201035  RH  090%=      5-min Rain = 0
KWT1 141540Z 08004KT M02/M04 A3038 RMK A01 T10211035  RH  090%=      5-min Rain = 0
KWT1 141541Z 08003KT M02/M03 A3038 RMK A01 T10211034  RH  090%=      5-min Rain = 0
KWT1 141542Z 08005KT M02/M03 A3038 RMK A01 T10211034  RH  090%=      5-min Rain = 0
KWT1 141543Z 09005KT M02/M03 A3038 RMK A01 T10191032  RH  091%=      5-min Rain = 0
KWT1 141544Z 10005KT M02/M03 A3038 RMK A01 T10181030  RH  091%=      5-min Rain = 0
KWT1 141545Z 11004KT M02/M03 A3038 RMK A01 T10171029  RH  091%=      5-min Rain = 0
KWT1 141546Z 10004KT M02/M03 A3038 RMK A01 T10171031  RH  090%=      5-min Rain = 0
KWT1 141547Z 11004KT M02/M03 A3038 RMK A01 T10171031  RH  090%=      5-min Rain = 0
KWT1 141548Z 10004KT M02/M03 A3038 RMK A01 T10171030  RH  091%=      5-min Rain = 0
KWT1 141549Z 08005KT M02/M03 A3038 RMK A01 T10161029  RH  091%=      5-min Rain = 0
KWT1 141550Z 09005KT M02/M03 A3038 RMK A01 T10171032  RH  090%=      5-min Rain = 0
KWT1 141551Z 10004KT M02/M03 A3038 RMK A01 T10181033  RH  090%=      5-min Rain = 0
KWT1 141552Z 09005KT M02/M03 A3038 RMK A01 T10181031  RH  090%=      5-min Rain = 0
KWT1 141553Z 10004KT M02/M03 A3038 RMK A01 T10171032  RH  090%=      5-min Rain = 0
KWT1 141554Z 09005KT M02/M03 A3038 RMK A01 T10181032  RH  090%=      5-min Rain = 0
KWT1 141555Z 09004KT M02/M03 A3038 RMK A01 T10171030  RH  091%=      5-min Rain = 0
KWT1 141556Z 11002KT M02/M03 A3038 RMK A01 T10171030  RH  091%=      5-min Rain = 0
KWT1 141557Z 12004KT M02/M03 A3038 RMK A01 T10171030  RH  091%=      5-min Rain = 0
KWT1 141558Z 09003KT M02/M03 A3038 RMK A01 T10161029  RH  091%=      5-min Rain = 0
KWT1 141559Z 09003KT M02/M03 A3038 RMK A01 T10161029  RH  091%=      5-min Rain = 0
KWT1 141600Z 10003KT M02/M03 A3038 RMK A01 T10161030  RH  090%=      5-min Rain = 0
KWT1 141601Z 11003KT M02/M03 A3038 RMK A01 T10171030  RH  090%=      5-min Rain = 0
KWT1 141602Z 09003KT M02/M03 A3038 RMK A01 T10171030  RH  091%=      5-min Rain = 0
KWT1 141603Z 08003KT M02/M03 A3038 RMK A01 T10161030  RH  091%=      5-min Rain = 0
KWT1 141604Z 09004KT M02/M03 A3038 RMK A01 T10161030  RH  091%=      5-min Rain = 0
KWT1 141605Z 09006KT M02/M03 A3038 RMK A01 T10161030  RH  091%=      5-min Rain = 0
KWT1 141606Z 09004KT M02/M03 A3038 RMK A01 T10161030  RH  091%=      5-min Rain = 0
KWT1 141607Z 09004KT M02/M03 A3038 RMK A01 T10161030  RH  091%=      5-min Rain = 0
KWT1 141608Z 08004KT M02/M03 A3038 RMK A01 T10161030  RH  091%=      5-min Rain = 0
KWT1 141609Z 10004KT M02/M03 A3038 RMK A01 T10161029  RH  091%=      5-min Rain = 0
KWT1 141610Z 09004KT M02/M03 A3039 RMK A01 T10151027  RH  092%=      5-min Rain = 0
KWT1 141611Z 11003KT M01/M03 A3039 RMK A01 T10141025  RH  092%=      5-min Rain = 0
KWT1 141612Z 11003KT M01/M03 A3039 RMK A01 T10141027  RH  091%=      5-min Rain = 0
KWT1 141613Z 13004KT M02/M03 A3039 RMK A01 T10151029  RH  090%=      5-min Rain = 0
KWT1 141614Z 10004KT M01/M03 A3039 RMK A01 T10141027  RH  091%=      5-min Rain = 0
KWT1 141615Z 12004KT M01/M03 A3039 RMK A01 T10141028  RH  091%=      5-min Rain = 0
KWT1 141616Z 12004KT M01/M03 A3039 RMK A01 T10141029  RH  090%=      5-min Rain = 0
KWT1 141617Z 12003KT M02/M03 A3038 RMK A01 T10151029  RH  090%=      5-min Rain = 0
KWT1 141618Z 12003KT M01/M03 A3038 RMK A01 T10141027  RH  091%=      5-min Rain = 0
KWT1 141619Z 12005KT M01/M03 A3038 RMK A01 T10131026  RH  091%=      5-min Rain = 0
KWT1 141620Z 12005KT M01/M03 A3038 RMK A01 T10121025  RH  091%=      5-min Rain = 0
KWT1 141621Z 13005KT M01/M03 A3038 RMK A01 T10131027  RH  090%=      5-min Rain = 0
KWT1 141622Z 12005KT M01/M03 A3038 RMK A01 T10131027  RH  090%=      5-min Rain = 0
KWT1 141623Z 12006KT M01/M03 A3038 RMK A01 T10131027  RH  090%=      5-min Rain = 0
KWT1 141624Z 11006KT M01/M03 A3038 RMK A01 T10121026  RH  090%=      5-min Rain = 0
KWT1 141625Z 13005KT M01/M03 A3038 RMK A01 T10131027  RH  090%=      5-min Rain = 0
KWT1 141626Z 13005KT M01/M03 A3038 RMK A01 T10131028  RH  090%=      5-min Rain = 0
KWT1 141627Z 12005KT M01/M03 A3038 RMK A01 T10121025  RH  091%=      5-min Rain = 0
KWT1 141628Z 12007KT M01/M02 A3038 RMK A01 T10111024  RH  091%=      5-min Rain = 0
KWT1 141629Z 14005KT M01/M02 A3038 RMK A01 T10111024  RH  091%=      5-min Rain = 0
KWT1 141630Z 16006KT M01/M02 A3038 RMK A01 T10111024  RH  091%=      5-min Rain = 0
KWT1 141631Z 16005KT M01/M03 A3038 RMK A01 T10111026  RH  090%=      5-min Rain = 0
KWT1 141632Z 14005KT M01/M03 A3038 RMK A01 T10121027  RH  090%=      5-min Rain = 0
KWT1 141633Z 13005KT M01/M03 A3038 RMK A01 T10121025  RH  091%=      5-min Rain = 0
KWT1 141634Z 12006KT M01/M02 A3038 RMK A01 T10111024  RH  091%=      5-min Rain = 0
KWT1 141635Z 13006KT M01/M02 A3038 RMK A01 T10101024  RH  090%=      5-min Rain = 0
KWT1 141636Z 14006KT M01/M02 A3038 RMK A01 T10101024  RH  090%=      5-min Rain = 0
KWT1 141637Z 13006KT M01/M03 A3038 RMK A01 T10101025  RH  090%=      5-min Rain = 0
KWT1 141638Z 12005KT M01/M02 A3038 RMK A01 T10101024  RH  090%=      5-min Rain = 0
KWT1 141639Z 13005KT M01/M02 A3038 RMK A01 T10091022  RH  091%=      5-min Rain = 0
KWT1 141640Z 15006KT M01/M02 A3038 RMK A01 T10081021  RH  091%=      5-min Rain = 0
KWT1 141641Z 15006KT M01/M02 A3038 RMK A01 T10071022  RH  090%=      5-min Rain = 0
KWT1 141642Z 15005KT M01/M02 A3038 RMK A01 T10081023  RH  089%=      5-min Rain = 0
KWT1 141643Z 14005KT M01/M02 A3038 RMK A01 T10091024  RH  089%=      5-min Rain = 0
KWT1 141644Z 14005KT M01/M02 A3038 RMK A01 T10091024  RH  089%=      5-min Rain = 0
KWT1 141645Z 14005KT M01/M02 A3038 RMK A01 T10091024  RH  089%=      5-min Rain = 0
KWT1 141646Z 15005KT M01/M02 A3038 RMK A01 T10091024  RH  089%=      5-min Rain = 0
KWT1 141647Z 16004KT M01/M02 A3038 RMK A01 T10091024  RH  089%=      5-min Rain = 0
KWT1 141648Z 14003KT M01/M03 A3038 RMK A01 T10091025  RH  089%=      5-min Rain = 0
KWT1 141649Z 16004KT M01/M02 A3038 RMK A01 T10091023  RH  090%=      5-min Rain = 0
KWT1 141650Z 15004KT M01/M02 A3038 RMK A01 T10081021  RH  090%=      5-min Rain = 0
KWT1 141651Z 14006KT M01/M02 A3038 RMK A01 T10061020  RH  091%=      5-min Rain = 0
KWT1 141652Z 14006KT M01/M02 A3037 RMK A01 T10061021  RH  090%=      5-min Rain = 0
KWT1 141653Z 14005KT M01/M02 A3037 RMK A01 T10061022  RH  089%=      5-min Rain = 0
KWT1 141654Z 14005KT M01/M02 A3037 RMK A01 T10061022  RH  089%=      5-min Rain = 0
KWT1 141655Z 15006KT M01/M02 A3037 RMK A01 T10061021  RH  090%=      5-min Rain = 0
KWT1 141656Z 16005KT M01/M02 A3037 RMK A01 T10051021  RH  089%=      5-min Rain = 0
KWT1 141657Z 15008KT M01/M02 A3037 RMK A01 T10051020  RH  090%=      5-min Rain = 0
KWT1 141658Z 13007KT M00/M02 A3037 RMK A01 T10041019  RH  090%=      5-min Rain = 0
KWT1 141659Z 15007KT M00/M02 A3037 RMK A01 T10041020  RH  089%=      5-min Rain = 0
KWT1 141700Z 16006KT M00/M02 A3037 RMK A01 T10041019  RH  089%=      5-min Rain = 0
KWT1 141701Z 14005KT M00/M02 A3037 RMK A01 T10041019  RH  089%=      5-min Rain = 0
KWT1 141702Z 15006KT M00/M02 A3037 RMK A01 T10031018  RH  089%=      5-min Rain = 0
KWT1 141703Z 16005KT M00/M02 A3037 RMK A01 T10021017  RH  090%=      5-min Rain = 0
KWT1 141704Z 16008KT M00/M02 A3037 RMK A01 T10011016  RH  089%=      5-min Rain = 0
KWT1 141705Z 15007KT 00/02 A3037 RMK A01 T00-00-17  RH  088%=      5-min Rain = 0
KWT1 141706Z 13008KT 00/02 A3037 RMK A01 T00-00-17  RH  089%=      5-min Rain = 0
KWT1 141707Z 13007KT 00/02 A3037 RMK A01 T00-00-18  RH  088%=      5-min Rain = 0
KWT1 141708Z 13006KT 00/02 A3037 RMK A01 T00-00-18  RH  088%=      5-min Rain = 0
KWT1 141709Z 13006KT 00/02 A3037 RMK A01 T00-00-18  RH  088%=      5-min Rain = 0
KWT1 141710Z 15005KT 00/M02 A3037 RMK A01 T00011017  RH  088%=      5-min Rain = 0
KWT1 141711Z 14005KT 00/M01 A3037 RMK A01 T00041013  RH  089%=      5-min Rain = 0
KWT1 141712Z 14008KT 01/M01 A3037 RMK A01 T00051014  RH  088%=      5-min Rain = 0
KWT1 141713Z 14006KT 00/M02 A3037 RMK A01 T00041016  RH  086%=      5-min Rain = 0
KWT1 141714Z 15006KT 00/M02 A3037 RMK A01 T00041018  RH  085%=      5-min Rain = 0
KWT1 141715Z 13007KT 00/M02 A3037 RMK A01 T00031018  RH  086%=      5-min Rain = 0
KWT1 141716Z 13006KT 00/M02 A3037 RMK A01 T00031018  RH  086%=      5-min Rain = 0
KWT1 141717Z 14006KT 00/M02 A3037 RMK A01 T00031018  RH  086%=      5-min Rain = 0
KWT1 141718Z 12005KT 00/M02 A3036 RMK A01 T00031018  RH  086%=      5-min Rain = 0
KWT1 141719Z 14005KT 00/M02 A3036 RMK A01 T00031017  RH  086%=      5-min Rain = 0
KWT1 141720Z 13008KT 01/M02 A3036 RMK A01 T00051016  RH  086%=      5-min Rain = 0
KWT1 141721Z 14009KT 01/M02 A3036 RMK A01 T00061016  RH  086%=      5-min Rain = 0
KWT1 141722Z 13008KT 01/M02 A3036 RMK A01 T00061017  RH  084%=      5-min Rain = 0
KWT1 141723Z 13007KT 01/M02 A3036 RMK A01 T00071016  RH  084%=      5-min Rain = 0
KWT1 141724Z 14006KT 01/M01 A3036 RMK A01 T00091014  RH  084%=      5-min Rain = 0
KWT1 141725Z 15007KT 01/M01 A3036 RMK A01 T00121011  RH  085%=      5-min Rain = 0
KWT1 141726Z 15006KT 01/M01 A3036 RMK A01 T00121014  RH  083%=      5-min Rain = 0
KWT1 141727Z 15008KT 01/M01 A3036 RMK A01 T00131012  RH  083%=      5-min Rain = 0
KWT1 141728Z 13007KT 01/M01 A3036 RMK A01 T00141014  RH  082%=      5-min Rain = 0
KWT1 141729Z 14006KT 01/M02 A3036 RMK A01 T00141015  RH  081%=      5-min Rain = 0
KWT1 141730Z 13006KT 01/M01 A3036 RMK A01 T00141013  RH  082%=      5-min Rain = 0
KWT1 141731Z 16008KT 02/M01 A3036 RMK A01 T00151014  RH  081%=      5-min Rain = 0
KWT1 141732Z 16008KT 01/M02 A3036 RMK A01 T00141015  RH  081%=      5-min Rain = 0
KWT1 141733Z 16008KT 01/M02 A3036 RMK A01 T00141015  RH  081%=      5-min Rain = 0
KWT1 141734Z 15007KT 01/M02 A3036 RMK A01 T00131016  RH  081%=      5-min Rain = 0
KWT1 141735Z 14006KT 01/M02 A3035 RMK A01 T00141015  RH  081%=      5-min Rain = 0
KWT1 141736Z 13006KT 02/M01 A3035 RMK A01 T00161012  RH  082%=      5-min Rain = 0
KWT1 141737Z 12007KT 02/M01 A3035 RMK A01 T00191010  RH  081%=      5-min Rain = 0
KWT1 141738Z 13008KT 02/M01 A3035 RMK A01 T00191014  RH  079%=      5-min Rain = 0
KWT1 141739Z 13009KT 02/M01 A3035 RMK A01 T00181014  RH  079%=      5-min Rain = 0
KWT1 141740Z 14009KT 02/M01 A3035 RMK A01 T00201013  RH  079%=      5-min Rain = 0
KWT1 141741Z 15008KT 02/M01 A3035 RMK A01 T00231011  RH  078%=      5-min Rain = 0
KWT1 141742Z 14008KT 03/M01 A3035 RMK A01 T00251013  RH  076%=      5-min Rain = 0
KWT1 141743Z 14007KT 02/M02 A3035 RMK A01 T00231017  RH  075%=      5-min Rain = 0
KWT1 141744Z 14007KT 02/M02 A3035 RMK A01 T00201019  RH  075%=      5-min Rain = 0
KWT1 141745Z 15006KT 02/M02 A3035 RMK A01 T00201017  RH  077%=      5-min Rain = 0
KWT1 141746Z 17005KT 02/M02 A3035 RMK A01 T00191017  RH  077%=      5-min Rain = 0
KWT1 141747Z 16009KT 02/M02 A3035 RMK A01 T00201015  RH  078%=      5-min Rain = 0
KWT1 141748Z 15009KT 02/M01 A3035 RMK A01 T00231014  RH  077%=      5-min Rain = 0
KWT1 141749Z 16009KT 03/M01 A3035 RMK A01 T00251013  RH  076%=      5-min Rain = 0
KWT1 141750Z 15009KT 03/M01 A3035 RMK A01 T00261013  RH  075%=      5-min Rain = 0
KWT1 141751Z 17009KT 03/M02 A3034 RMK A01 T00261015  RH  074%=      5-min Rain = 0
KWT1 141752Z 18009KT 03/M02 A3034 RMK A01 T00251016  RH  074%=      5-min Rain = 0
KWT1 141753Z 16010KT 02/M02 A3034 RMK A01 T00241017  RH  074%=      5-min Rain = 0
KWT1 141754Z 16008KT 02/M02 A3034 RMK A01 T00231017  RH  075%=      5-min Rain = 0
KWT1 141755Z 15006KT 02/M01 A3034 RMK A01 T00241012  RH  077%=      5-min Rain = 0
KWT1 141756Z 16008KT 03/M01 A3034 RMK A01 T00261013  RH  076%=      5-min Rain = 0
KWT1 141757Z 13009KT 03/M01 A3034 RMK A01 T00251014  RH  075%=      5-min Rain = 0
KWT1 141758Z 12007KT 03/M01 A3034 RMK A01 T00261012  RH  076%=      5-min Rain = 0
KWT1 141759Z 12006KT 03/M01 A3034 RMK A01 T00271011  RH  076%=      5-min Rain = 0
KWT1 141800Z 12007KT 03/M01 A3034 RMK A01 T00291011  RH  075%=      5-min Rain = 0
KWT1 141801Z 14006KT 03/M01 A3034 RMK A01 T00291011  RH  075%=      5-min Rain = 0
KWT1 141802Z 16007KT 03/M01 A3034 RMK A01 T00301011  RH  075%=      5-min Rain = 0
KWT1 141803Z 16007KT 03/M01 A3034 RMK A01 T00291014  RH  073%=      5-min Rain = 0
KWT1 141804Z 16008KT 03/M01 A3034 RMK A01 T00291012  RH  075%=      5-min Rain = 0
KWT1 141805Z 15007KT 03/M01 A3034 RMK A01 T00331007  RH  075%=      5-min Rain = 0
KWT1 141806Z 13009KT 04/M01 A3034 RMK A01 T00371006  RH  073%=      5-min Rain = 0
KWT1 141807Z 14008KT 04/M01 A3034 RMK A01 T00351013  RH  071%=      5-min Rain = 0
KWT1 141808Z 14008KT 03/M01 A3034 RMK A01 T00321012  RH  073%=      5-min Rain = 0
KWT1 141809Z 13006KT 03/M01 A3034 RMK A01 T00341009  RH  074%=      5-min Rain = 0
KWT1 141810Z 14008KT 04/M01 A3034 RMK A01 T00371006  RH  073%=      5-min Rain = 0
KWT1 141811Z 15009KT 04/M01 A3033 RMK A01 T00381007  RH  072%=      5-min Rain = 0
KWT1 141812Z 16008KT 04/M01 A3033 RMK A01 T00401008  RH  071%=      5-min Rain = 0
KWT1 141813Z 16011KT 04/M01 A3033 RMK A01 T00411007  RH  071%=      5-min Rain = 0
KWT1 141814Z 15009KT 04/M01 A3033 RMK A01 T00401012  RH  069%=      5-min Rain = 0
KWT1 141815Z 16009KT 04/M01 A3033 RMK A01 T00371014  RH  069%=      5-min Rain = 0
KWT1 141816Z 16009KT 04/M01 A3033 RMK A01 T00371012  RH  070%=      5-min Rain = 0
KWT1 141817Z 18008KT 04/M01 A3033 RMK A01 T00371011  RH  071%=      5-min Rain = 0
KWT1 141818Z 18009KT 04/M01 A3033 RMK A01 T00381011  RH  071%=      5-min Rain = 0
KWT1 141819Z 15013G20KT 04/M01 A3033 RMK A01 T00371011  RH  071%=      5-min Rain = 0
KWT1 141820Z 14009KT 04/M01 A3033 RMK A01 T00391008  RH  071%=      5-min Rain = 0
KWT1 141821Z 14007KT 04/M01 A3033 RMK A01 T00391010  RH  071%=      5-min Rain = 0
KWT1 141822Z 14008KT 04/M01 A3033 RMK A01 T00381009  RH  072%=      5-min Rain = 0
KWT1 141823Z 15007KT 04/M01 A3033 RMK A01 T00401006  RH  072%=      5-min Rain = 0
KWT1 141824Z 17007KT 04/M01 A3033 RMK A01 T00421005  RH  072%=      5-min Rain = 0
KWT1 141825Z 17009KT 05/M01 A3033 RMK A01 T00451006  RH  070%=      5-min Rain = 0
KWT1 141826Z 17008KT 04/M01 A3033 RMK A01 T00441010  RH  068%=      5-min Rain = 0
KWT1 141827Z 17008KT 04/M01 A3033 RMK A01 T00421011  RH  068%=      5-min Rain = 0
KWT1 141828Z 16008KT 04/M01 A3033 RMK A01 T00411009  RH  069%=      5-min Rain = 0
KWT1 141829Z 16008KT 04/M01 A3033 RMK A01 T00411010  RH  069%=      5-min Rain = 0
KWT1 141830Z 17007KT 04/M01 A3033 RMK A01 T00371013  RH  070%=      5-min Rain = 0
KWT1 141831Z 16008KT 04/M01 A3033 RMK A01 T00351013  RH  071%=      5-min Rain = 0
KWT1 141832Z 16008KT 04/M01 A3033 RMK A01 T00391008  RH  072%=      5-min Rain = 0
KWT1 141833Z 14009KT 04/M01 A3033 RMK A01 T00401010  RH  070%=      5-min Rain = 0
KWT1 141834Z 14010KT 04/M01 A3033 RMK A01 T00411009  RH  070%=      5-min Rain = 0
KWT1 141835Z 14008KT 04/M01 A3033 RMK A01 T00411010  RH  069%=      5-min Rain = 0
KWT1 141836Z 14007KT 04/M01 A3033 RMK A01 T00401011  RH  070%=      5-min Rain = 0
KWT1 141837Z 14007KT 04/M01 A3033 RMK A01 T00401009  RH  070%=      5-min Rain = 0
KWT1 141838Z 13006KT 04/M01 A3032 RMK A01 T00411007  RH  071%=      5-min Rain = 0
KWT1 141839Z 14007KT 04/M01 A3032 RMK A01 T00431005  RH  071%=      5-min Rain = 0
KWT1 141840Z 14007KT 05/M01 A3032 RMK A01 T00451006  RH  070%=      5-min Rain = 0
KWT1 141841Z 16009KT 05/M00 A3032 RMK A01 T00471004  RH  069%=      5-min Rain = 0
KWT1 141842Z 18006KT 05/M00 A3032 RMK A01 T00511001  RH  069%=      5-min Rain = 0
KWT1 141843Z 18004KT 05/M00 A3032 RMK A01 T00521003  RH  067%=      5-min Rain = 0
KWT1 141844Z 16010KT 06/M00 A3032 RMK A01 T00551002  RH  067%=      5-min Rain = 0
KWT1 141845Z 16011KT 05/M01 A3032 RMK A01 T00531008  RH  065%=      5-min Rain = 0
KWT1 141846Z 15010KT 05/M01 A3032 RMK A01 T00491010  RH  065%=      5-min Rain = 0
KWT1 141847Z 17008KT 05/M01 A3032 RMK A01 T00491008  RH  066%=      5-min Rain = 0
KWT1 141848Z 18008KT 05/M01 A3032 RMK A01 T00481009  RH  066%=      5-min Rain = 0
KWT1 141849Z 17009KT 05/M01 A3032 RMK A01 T00471009  RH  067%=      5-min Rain = 0
KWT1 141850Z 18005KT 05/M01 A3032 RMK A01 T00461008  RH  068%=      5-min Rain = 0
KWT1 141851Z 17003KT 05/M01 A3032 RMK A01 T00451009  RH  068%=      5-min Rain = 0
KWT1 141852Z 17006G12KT 05/M01 A3032 RMK A01 T00451008  RH  068%=      5-min Rain = 0
KWT1 141853Z 17010KT 05/M01 A3032 RMK A01 T00471005  RH  069%=      5-min Rain = 0
KWT1 141854Z 19006KT 05/M01 A3032 RMK A01 T00471007  RH  068%=      5-min Rain = 0
KWT1 141855Z 18005KT 05/M01 A3032 RMK A01 T00461008  RH  068%=      5-min Rain = 0
KWT1 141856Z 18007KT 05/M00 A3032 RMK A01 T00491004  RH  069%=      5-min Rain = 0
KWT1 141857Z 16006KT 05/M01 A3032 RMK A01 T00511006  RH  067%=      5-min Rain = 0
KWT1 141858Z 18010KT 05/M00 A3032 RMK A01 T00521004  RH  067%=      5-min Rain = 0
KWT1 141859Z 19007KT 05/M01 A3032 RMK A01 T00521007  RH  066%=      5-min Rain = 0
KWT1 141900Z 19006KT 05/M01 A3032 RMK A01 T00501007  RH  067%=      5-min Rain = 0
KWT1 141901Z 18007KT 05/M00 A3032 RMK A01 T00521003  RH  068%=      5-min Rain = 0
KWT1 141902Z 16008KT 05/M00 A3032 RMK A01 T00541003  RH  066%=      5-min Rain = 0
KWT1 141903Z 16008KT 06/M00 A3032 RMK A01 T00561004  RH  066%=      5-min Rain = 0
KWT1 141904Z 16007KT 06/M01 A3032 RMK A01 T00561005  RH  065%=      5-min Rain = 0
KWT1 141905Z 15004KT 05/M01 A3031 RMK A01 T00531007  RH  065%=      5-min Rain = 0
KWT1 141906Z 19006KT 05/M00 A3031 RMK A01 T00531003  RH  067%=      5-min Rain = 0
KWT1 141907Z 17007KT 05/M00 A3031 RMK A01 T00541004  RH  066%=      5-min Rain = 0
KWT1 141908Z 17007KT 05/M00 A3031 RMK A01 T00541003  RH  067%=      5-min Rain = 0
KWT1 141909Z 15005KT 05/M00 A3031 RMK A01 T00541003  RH  066%=      5-min Rain = 0
KWT1 141910Z 13007KT 06/00 A3031 RMK A01 T005500-0  RH  067%=      5-min Rain = 0
KWT1 141911Z 14009KT 06/00 A3031 RMK A01 T00590002  RH  067%=      5-min Rain = 0
KWT1 141912Z 12008KT 06/M00 A3031 RMK A01 T00591001  RH  065%=      5-min Rain = 0
KWT1 141913Z 13008KT 06/M00 A3031 RMK A01 T00571004  RH  065%=      5-min Rain = 0
KWT1 141914Z 14009KT 06/M00 A3031 RMK A01 T00571001  RH  067%=      5-min Rain = 0
KWT1 141915Z 15007KT 06/M00 A3031 RMK A01 T00591001  RH  066%=      5-min Rain = 0
KWT1 141916Z 14007KT 06/M00 A3031 RMK A01 T00591002  RH  065%=      5-min Rain = 0
KWT1 141917Z 14005KT 06/M00 A3031 RMK A01 T00571004  RH  065%=      5-min Rain = 0
KWT1 141918Z 16006KT 06/M00 A3031 RMK A01 T00571003  RH  066%=      5-min Rain = 0
KWT1 141919Z 15007KT 06/M00 A303 RMK A01 T00571003  RH  065%=      5-min Rain = 0
KWT1 141920Z 17007KT 06/M00 A303 RMK A01 T00571002  RH  066%=      5-min Rain = 0
KWT1 141921Z 19008KT 06/00 A303 RMK A01 T00600001  RH  066%=      5-min Rain = 0
KWT1 141922Z 19010KT 06/00 A303 RMK A01 T00610000  RH  065%=      5-min Rain = 0
KWT1 141923Z 19007KT 06/M00 A303 RMK A01 T00601001  RH  065%=      5-min Rain = 0
KWT1 141924Z 18006KT 06/M00 A303 RMK A01 T00581002  RH  065%=      5-min Rain = 0
KWT1 141925Z 15005KT 06/00 A303 RMK A01 T00590002  RH  066%=      5-min Rain = 0
KWT1 141926Z 15005KT 06/00 A303 RMK A01 T00610000  RH  065%=      5-min Rain = 0
KWT1 141927Z 17005KT 06/00 A303 RMK A01 T00610001  RH  065%=      5-min Rain = 0
KWT1 141928Z 17005KT 06/00 A303 RMK A01 T006100-0  RH  065%=      5-min Rain = 0
KWT1 141929Z 16004KT 06/00 A3029 RMK A01 T00620001  RH  065%=      5-min Rain = 0
KWT1 141930Z 16004KT 06/00 A3029 RMK A01 T00630001  RH  065%=      5-min Rain = 0
KWT1 141931Z 19008KT 07/01 A3029 RMK A01 T00660005  RH  065%=      5-min Rain = 0
KWT1 141932Z 16011KT 07/00 A3029 RMK A01 T00670003  RH  064%=      5-min Rain = 0
KWT1 141933Z 17008KT 07/00 A3029 RMK A01 T00690004  RH  063%=      5-min Rain = 0
KWT1 141934Z 17008KT 07/M00 A3029 RMK A01 T00661001  RH  062%=      5-min Rain = 0
KWT1 141935Z 17010KT 07/00 A3029 RMK A01 T00660001  RH  063%=      5-min Rain = 0
KWT1 141936Z 17009KT 07/00 A3029 RMK A01 T00660002  RH  063%=      5-min Rain = 0
KWT1 141937Z 17009KT 07/00 A3029 RMK A01 T00670001  RH  063%=      5-min Rain = 0
KWT1 141938Z 17007KT 07/00 A3029 RMK A01 T00680003  RH  063%=      5-min Rain = 0
KWT1 141939Z 18007KT 07/00 A3029 RMK A01 T00680003  RH  063%=      5-min Rain = 0
KWT1 141940Z 19007KT 07/00 A3029 RMK A01 T00690001  RH  062%=      5-min Rain = 0
KWT1 141941Z 19009KT 07/00 A3029 RMK A01 T00670000  RH  062%=      5-min Rain = 0
KWT1 141942Z 17007KT 07/00 A3029 RMK A01 T00680002  RH  063%=      5-min Rain = 0
KWT1 141943Z 16007KT 07/00 A3028 RMK A01 T00680004  RH  063%=      5-min Rain = 0
KWT1 141944Z 16007KT 07/00 A3028 RMK A01 T00700002  RH  062%=      5-min Rain = 0
KWT1 141945Z 15007KT 07/00 A3028 RMK A01 T00690002  RH  062%=      5-min Rain = 0
KWT1 141946Z 16007KT 07/00 A3028 RMK A01 T00680001  RH  062%=      5-min Rain = 0
KWT1 141947Z 15006KT 07/00 A3028 RMK A01 T00670001  RH  063%=      5-min Rain = 0
KWT1 141948Z 14005KT 07/01 A3028 RMK A01 T00710008  RH  065%=      5-min Rain = 0
KWT1 141949Z 15006KT 08/01 A3028 RMK A01 T00750008  RH  062%=      5-min Rain = 0
KWT1 141950Z 18006KT 08/00 A3028 RMK A01 T00750002  RH  060%=      5-min Rain = 0
KWT1 141951Z 19004KT 07/00 A3027 RMK A01 T00720000  RH  060%=      5-min Rain = 0
KWT1 141952Z 17004KT 07/00 A3027 RMK A01 T00740002  RH  060%=      5-min Rain = 0
KWT1 141953Z 19003KT 07/00 A3027 RMK A01 T00740002  RH  060%=      5-min Rain = 0
KWT1 141954Z 18006KT 08/01 A3027 RMK A01 T00760005  RH  061%=      5-min Rain = 0
KWT1 141955Z 17007KT 08/01 A3027 RMK A01 T00790008  RH  061%=      5-min Rain = 0
KWT1 141956Z 17007KT 08/00 A3027 RMK A01 T00790002  RH  058%=      5-min Rain = 0
KWT1 141957Z 17009KT 08/00 A3027 RMK A01 T00770002  RH  059%=      5-min Rain = 0
KWT1 141958Z 18009KT 08/00 A3027 RMK A01 T00770002  RH  059%=      5-min Rain = 0
KWT1 141959Z 20010KT 08/00 A3027 RMK A01 T00780003  RH  059%=      5-min Rain = 0
KWT1 142000Z 21008KT 08/01 A3027 RMK A01 T00790006  RH  060%=      5-min Rain = 0
KWT1 142001Z 21010KT 08/00 A3027 RMK A01 T00800003  RH  058%=      5-min Rain = 0
KWT1 142002Z 20009KT 08/M00 A3027 RMK A01 T00781001  RH  057%=      5-min Rain = 0
KWT1 142003Z 20011KT 08/M00 A3026 RMK A01 T00751001  RH  058%=      5-min Rain = 0
KWT1 142004Z 21010KT 08/00 A3026 RMK A01 T00760002  RH  059%=      5-min Rain = 0
KWT1 142005Z 21008KT 08/00 A3026 RMK A01 T00780003  RH  059%=      5-min Rain = 0
KWT1 142006Z 19011KT 08/01 A3026 RMK A01 T00810006  RH  059%=      5-min Rain = 0
KWT1 142007Z 19010KT 08/00 A3026 RMK A01 T00810002  RH  058%=      5-min Rain = 0
KWT1 142008Z 19009KT 08/00 A3026 RMK A01 T00800002  RH  058%=      5-min Rain = 0
KWT1 142009Z 19009KT 08/00 A3026 RMK A01 T00790002  RH  058%=      5-min Rain = 0
KWT1 142010Z 19008KT 08/00 A3026 RMK A01 T00790004  RH  059%=      5-min Rain = 0
KWT1 142011Z 18009KT 08/01 A3026 RMK A01 T00800005  RH  059%=      5-min Rain = 0
KWT1 142012Z 19008KT 08/00 A3026 RMK A01 T00780003  RH  059%=      5-min Rain = 0
KWT1 142013Z 20008KT 08/00 A3026 RMK A01 T00770003  RH  059%=      5-min Rain = 0
KWT1 142014Z 19011KT 08/01 A3026 RMK A01 T00780005  RH  060%=      5-min Rain = 0
KWT1 142015Z 19008KT 08/00 A3026 RMK A01 T00780004  RH  059%=      5-min Rain = 0
KWT1 142016Z 20006KT 08/00 A3026 RMK A01 T00770003  RH  059%=      5-min Rain = 0
KWT1 142017Z 20005KT 08/00 A3026 RMK A01 T00750002  RH  060%=      5-min Rain = 0
KWT1 142018Z 19008KT 08/01 A3026 RMK A01 T00760005  RH  061%=      5-min Rain = 0
KWT1 142019Z 21006KT 08/01 A3026 RMK A01 T00770005  RH  061%=      5-min Rain = 0
KWT1 142020Z 20007KT 08/01 A3026 RMK A01 T00780007  RH  061%=      5-min Rain = 0
KWT1 142021Z 20008KT 08/01 A3026 RMK A01 T00810011  RH  061%=      5-min Rain = 0
KWT1 142022Z 20010KT 08/01 A3026 RMK A01 T00820008  RH  060%=      5-min Rain = 0
KWT1 142023Z 20010KT 08/01 A3026 RMK A01 T00810005  RH  059%=      5-min Rain = 0
KWT1 142024Z 21008KT 08/01 A3026 RMK A01 T00790005  RH  059%=      5-min Rain = 0
KWT1 142025Z 21009KT 08/01 A3026 RMK A01 T00790005  RH  059%=      5-min Rain = 0
KWT1 142026Z 20011KT 08/00 A3026 RMK A01 T00770004  RH  060%=      5-min Rain = 0
KWT1 142027Z 19008KT 08/00 A3026 RMK A01 T00760004  RH  060%=      5-min Rain = 0
KWT1 142028Z 20007G12KT 08/01 A3025 RMK A01 T00770007  RH  061%=      5-min Rain = 0
KWT1 142029Z 19011KT 08/01 A3025 RMK A01 T00810009  RH  061%=      5-min Rain = 0
KWT1 142030Z 19009KT 08/00 A3025 RMK A01 T00790004  RH  059%=      5-min Rain = 0
KWT1 142031Z 21010KT 08/01 A3025 RMK A01 T00790006  RH  060%=      5-min Rain = 0
KWT1 142032Z 20006KT 08/00 A3025 RMK A01 T00780004  RH  059%=      5-min Rain = 0
KWT1 142033Z 20011KT 08/01 A3025 RMK A01 T00770006  RH  061%=      5-min Rain = 0
KWT1 142034Z 19011KT 08/01 A3025 RMK A01 T00780005  RH  060%=      5-min Rain = 0
KWT1 142035Z 19009KT 08/01 A3025 RMK A01 T00780006  RH  060%=      5-min Rain = 0
KWT1 142036Z 19008KT 08/00 A3025 RMK A01 T00780004  RH  060%=      5-min Rain = 0
KWT1 142037Z 18006KT 08/01 A3025 RMK A01 T00770006  RH  061%=      5-min Rain = 0
KWT1 142038Z 15006KT 08/01 A3025 RMK A01 T00780008  RH  061%=      5-min Rain = 0
KWT1 142039Z 18007KT 08/01 A3025 RMK A01 T00800009  RH  061%=      5-min Rain = 0
KWT1 142040Z 19008KT 08/01 A3025 RMK A01 T00830011  RH  060%=      5-min Rain = 0
KWT1 142041Z 19008KT 08/01 A3025 RMK A01 T00840009  RH  059%=      5-min Rain = 0
KWT1 142042Z 18008KT 08/01 A3025 RMK A01 T00840010  RH  060%=      5-min Rain = 0
KWT1 142043Z 18006KT 08/01 A3025 RMK A01 T00830007  RH  059%=      5-min Rain = 0
KWT1 142044Z 20006KT 08/01 A3025 RMK A01 T00820009  RH  060%=      5-min Rain = 0
KWT1 142045Z 20008KT 08/01 A3025 RMK A01 T00840009  RH  059%=      5-min Rain = 0
KWT1 142046Z 20006KT 08/01 A3025 RMK A01 T00810005  RH  059%=      5-min Rain = 0
KWT1 142047Z 19007KT 08/01 A3025 RMK A01 T00800008  RH  060%=      5-min Rain = 0
KWT1 142048Z 19009KT 08/01 A3025 RMK A01 T00830013  RH  061%=      5-min Rain = 0
KWT1 142049Z 21009KT 09/01 A3025 RMK A01 T00860013  RH  060%=      5-min Rain = 0
KWT1 142050Z 22009KT 09/01 A3025 RMK A01 T00870013  RH  060%=      5-min Rain = 0
KWT1 142051Z 22008KT 09/01 A3025 RMK A01 T00870009  RH  058%=      5-min Rain = 0
KWT1 142052Z 21005KT 08/01 A3025 RMK A01 T00840008  RH  059%=      5-min Rain = 0
KWT1 142053Z 19006KT 09/01 A3025 RMK A01 T00860012  RH  060%=      5-min Rain = 0
KWT1 142054Z 20006KT 09/01 A3025 RMK A01 T00860009  RH  058%=      5-min Rain = 0
KWT1 142055Z 19009KT 09/01 A3025 RMK A01 T00860010  RH  059%=      5-min Rain = 0
KWT1 142056Z 21008KT 09/01 A3025 RMK A01 T00860010  RH  059%=      5-min Rain = 0
KWT1 142057Z 17007KT 09/01 A3025 RMK A01 T00860010  RH  059%=      5-min Rain = 0
KWT1 142058Z 15007KT 09/01 A3025 RMK A01 T00860009  RH  059%=      5-min Rain = 0
KWT1 142059Z 20007KT 09/01 A3025 RMK A01 T00870011  RH  059%=      5-min Rain = 0
KWT1 142100Z 19008KT 09/01 A3025 RMK A01 T00870010  RH  059%=      5-min Rain = 0
KWT1 142101Z 19007KT 09/01 A3024 RMK A01 T00880012  RH  059%=      5-min Rain = 0
KWT1 142102Z 19009KT 09/01 A3025 RMK A01 T00890013  RH  059%=      5-min Rain = 0
KWT1 142103Z 20010KT 09/01 A3024 RMK A01 T00870010  RH  058%=      5-min Rain = 0
KWT1 142104Z 18010KT 09/01 A3024 RMK A01 T00850010  RH  059%=      5-min Rain = 0
KWT1 142105Z 19008KT 09/01 A3024 RMK A01 T00860009  RH  059%=      5-min Rain = 0
KWT1 142106Z 17009KT 09/01 A3024 RMK A01 T00850010  RH  059%=      5-min Rain = 0
KWT1 142107Z 17007KT 09/01 A3024 RMK A01 T00850010  RH  059%=      5-min Rain = 0
KWT1 142108Z 21008KT 09/01 A3024 RMK A01 T00850010  RH  059%=      5-min Rain = 0
KWT1 142109Z 22010KT 09/01 A3024 RMK A01 T00860011  RH  059%=      5-min Rain = 0
KWT1 142110Z 21009KT 09/01 A3024 RMK A01 T00860009  RH  059%=      5-min Rain = 0
KWT1 142111Z 21008KT 09/01 A3024 RMK A01 T00870011  RH  059%=      5-min Rain = 0
KWT1 142112Z 20007KT 09/01 A3024 RMK A01 T00870011  RH  059%=      5-min Rain = 0
KWT1 142113Z 20006KT 09/01 A3024 RMK A01 T00860007  RH  058%=      5-min Rain = 0
KWT1 142114Z 19007KT 08/01 A3024 RMK A01 T00840008  RH  059%=      5-min Rain = 0
KWT1 142115Z 20006KT 08/01 A3024 RMK A01 T00840009  RH  059%=      5-min Rain = 0
KWT1 142116Z 21007KT 09/01 A3024 RMK A01 T00860013  RH  060%=      5-min Rain = 0
KWT1 142117Z 21008KT 09/01 A3024 RMK A01 T00890014  RH  059%=      5-min Rain = 0
KWT1 142118Z 21009KT 09/01 A3024 RMK A01 T00900012  RH  058%=      5-min Rain = 0
KWT1 142119Z 20007KT 09/01 A3024 RMK A01 T00890010  RH  058%=      5-min Rain = 0
KWT1 142120Z 19009KT 09/01 A3023 RMK A01 T00880010  RH  058%=      5-min Rain = 0
KWT1 142121Z 19007KT 09/01 A3023 RMK A01 T00880011  RH  059%=      5-min Rain = 0
KWT1 142122Z 19008KT 09/01 A3023 RMK A01 T00870012  RH  059%=      5-min Rain = 0
KWT1 142123Z 19009KT 09/01 A3023 RMK A01 T00880014  RH  060%=      5-min Rain = 0
KWT1 142124Z 19008KT 09/01 A3023 RMK A01 T00890011  RH  058%=      5-min Rain = 0
KWT1 142125Z 19006KT 09/01 A3023 RMK A01 T00880009  RH  058%=      5-min Rain = 0
KWT1 142126Z 18007KT 09/01 A3023 RMK A01 T00880010  RH  058%=      5-min Rain = 0
KWT1 142127Z 21008G16KT 09/01 A3023 RMK A01 T00880011  RH  058%=      5-min Rain = 0
KWT1 142128Z 16010G16KT 09/02 A3023 RMK A01 T00920015  RH  059%=      5-min Rain = 0
KWT1 142129Z 19009KT 09/01 A3023 RMK A01 T00940013  RH  057%=      5-min Rain = 0
KWT1 142130Z 18009KT 09/01 A3023 RMK A01 T00930012  RH  057%=      5-min Rain = 0
KWT1 142131Z 17010KT 09/01 A3023 RMK A01 T00940012  RH  057%=      5-min Rain = 0
KWT1 142132Z 17008KT 09/01 A3023 RMK A01 T00940012  RH  056%=      5-min Rain = 0
KWT1 142133Z 16008KT 09/01 A3023 RMK A01 T00930011  RH  056%=      5-min Rain = 0
KWT1 142134Z 17007KT 09/01 A3023 RMK A01 T00940014  RH  057%=      5-min Rain = 0
KWT1 142135Z 18005KT 10/01 A3023 RMK A01 T00950013  RH  056%=      5-min Rain = 0
KWT1 142136Z 16007KT 10/01 A3023 RMK A01 T00950013  RH  056%=      5-min Rain = 0
KWT1 142137Z 15007KT 10/01 A3023 RMK A01 T00950012  RH  056%=      5-min Rain = 0
KWT1 142138Z 15006G11KT 09/01 A3023 RMK A01 T00940011  RH  056%=      5-min Rain = 0
KWT1 142139Z 19009KT 09/01 A3022 RMK A01 T00930013  RH  057%=      5-min Rain = 0
KWT1 142140Z 19008KT 09/01 A3022 RMK A01 T00930012  RH  057%=      5-min Rain = 0
KWT1 142141Z 17005KT 09/01 A3022 RMK A01 T00940011  RH  056%=      5-min Rain = 0
KWT1 142142Z 17006KT 09/01 A3022 RMK A01 T00930013  RH  057%=      5-min Rain = 0
KWT1 142143Z 20007KT 10/02 A3022 RMK A01 T00950015  RH  057%=      5-min Rain = 0
KWT1 142144Z 20007KT 10/02 A3022 RMK A01 T00970016  RH  057%=      5-min Rain = 0
KWT1 142145Z 20007KT 10/02 A3022 RMK A01 T00990015  RH  056%=      5-min Rain = 0
KWT1 142146Z 20010KT 10/01 A3022 RMK A01 T00980013  RH  055%=      5-min Rain = 0
KWT1 142147Z 20008KT 10/01 A3022 RMK A01 T00980013  RH  056%=      5-min Rain = 0
KWT1 142148Z 19007KT 10/01 A3022 RMK A01 T00970012  RH  055%=      5-min Rain = 0
KWT1 142149Z 19009KT 10/01 A3022 RMK A01 T00980013  RH  056%=      5-min Rain = 0
KWT1 142150Z 17010KT 10/01 A3022 RMK A01 T00980014  RH  056%=      5-min Rain = 0
KWT1 142151Z 17010KT 10/01 A3022 RMK A01 T00990012  RH  055%=      5-min Rain = 0
KWT1 142152Z 17008KT 10/01 A3022 RMK A01 T00980011  RH  055%=      5-min Rain = 0
KWT1 142153Z 18006KT 10/01 A3022 RMK A01 T00980014  RH  056%=      5-min Rain = 0
KWT1 142154Z 18007KT 10/01 A3022 RMK A01 T00990012  RH  055%=      5-min Rain = 0
KWT1 142155Z 17009KT 10/01 A3022 RMK A01 T00990013  RH  055%=      5-min Rain = 0
KWT1 142156Z 18009KT 10/01 A3022 RMK A01 T01000014  RH  055%=      5-min Rain = 0
KWT1 142157Z 18010KT 10/01 A3022 RMK A01 T01010014  RH  055%=      5-min Rain = 0
KWT1 142158Z 18009KT 10/01 A3022 RMK A01 T01010012  RH  054%=      5-min Rain = 0
KWT1 142159Z 18008KT 10/01 A3022 RMK A01 T01000011  RH  054%=      5-min Rain = 0
KWT1 142200Z 16008KT 10/01 A3022 RMK A01 T01000014  RH  055%=      5-min Rain = 0
KWT1 142201Z 18008KT 10/01 A3022 RMK A01 T01010014  RH  055%=      5-min Rain = 0
KWT1 142202Z 19008KT 10/01 A3022 RMK A01 T01020014  RH  054%=      5-min Rain = 0
KWT1 142203Z 21007KT 10/01 A3022 RMK A01 T01010011  RH  054%=      5-min Rain = 0
KWT1 142204Z 19008KT 10/01 A3022 RMK A01 T01000011  RH  054%=      5-min Rain = 0
KWT1 142205Z 18010KT 10/01 A3022 RMK A01 T01000011  RH  054%=      5-min Rain = 0
KWT1 142206Z 17007KT 10/01 A3021 RMK A01 T01000011  RH  054%=      5-min Rain = 0
KWT1 142207Z 16007G12KT 10/01 A3021 RMK A01 T01000013  RH  055%=      5-min Rain = 0
KWT1 142208Z 16011KT 10/02 A3021 RMK A01 T01020015  RH  054%=      5-min Rain = 0
KWT1 142209Z 16010KT 10/02 A3021 RMK A01 T01030015  RH  054%=      5-min Rain = 0
KWT1 142210Z 18010KT 10/02 A3021 RMK A01 T01040015  RH  054%=      5-min Rain = 0
KWT1 142211Z 18008KT 10/01 A3021 RMK A01 T01040012  RH  053%=      5-min Rain = 0
KWT1 142212Z 17005KT 10/02 A3021 RMK A01 T01040016  RH  054%=      5-min Rain = 0
KWT1 142213Z 18009KT 11/02 A3021 RMK A01 T01070018  RH  054%=      5-min Rain = 0
KWT1 142214Z 20011KT 11/01 A3021 RMK A01 T01070012  RH  052%=      5-min Rain = 0
KWT1 142215Z 18009KT 11/01 A3021 RMK A01 T01050012  RH  052%=      5-min Rain = 0
KWT1 142216Z 16011KT 11/01 A3021 RMK A01 T01050013  RH  053%=      5-min Rain = 0
KWT1 142217Z 17010KT 11/01 A3021 RMK A01 T01050013  RH  053%=      5-min Rain = 0
KWT1 142218Z 18009KT 11/01 A3021 RMK A01 T01060014  RH  053%=      5-min Rain = 0
KWT1 142219Z 18010KT 11/01 A3021 RMK A01 T01080013  RH  052%=      5-min Rain = 0
KWT1 142220Z 19013KT 11/01 A3021 RMK A01 T01070012  RH  052%=      5-min Rain = 0
KWT1 142221Z 19011KT 11/01 A3021 RMK A01 T01070012  RH  052%=      5-min Rain = 0
KWT1 142222Z 20010KT 11/01 A302 RMK A01 T01060012  RH  052%=      5-min Rain = 0
KWT1 142223Z 20010KT 11/01 A302 RMK A01 T01060012  RH  052%=      5-min Rain = 0
KWT1 142224Z 18010KT 11/01 A302 RMK A01 T01070013  RH  052%=      5-min Rain = 0
KWT1 142225Z 16010KT 11/01 A302 RMK A01 T01080013  RH  052%=      5-min Rain = 0
KWT1 142226Z 16011KT 11/01 A302 RMK A01 T01080012  RH  052%=      5-min Rain = 0
KWT1 142227Z 16008KT 11/01 A302 RMK A01 T01060010  RH  051%=      5-min Rain = 0
KWT1 142228Z 15007KT 11/01 A302 RMK A01 T01050011  RH  052%=      5-min Rain = 0
KWT1 142229Z 17007KT 11/02 A302 RMK A01 T01070016  RH  053%=      5-min Rain = 0
KWT1 142230Z 18008KT 11/02 A302 RMK A01 T01090015  RH  052%=      5-min Rain = 0
KWT1 142231Z 18009KT 11/01 A302 RMK A01 T01090013  RH  052%=      5-min Rain = 0
KWT1 142232Z 18009KT 11/01 A302 RMK A01 T01080012  RH  052%=      5-min Rain = 0
KWT1 142233Z 18010KT 11/01 A302 RMK A01 T01080012  RH  052%=      5-min Rain = 0
KWT1 142234Z 17007KT 11/01 A302 RMK A01 T01080011  RH  051%=      5-min Rain = 0
KWT1 142235Z 17009KT 11/01 A302 RMK A01 T01080013  RH  052%=      5-min Rain = 0
KWT1 142236Z 17010KT 11/01 A302 RMK A01 T01080013  RH  052%=      5-min Rain = 0
KWT1 142237Z 16009KT 11/01 A302 RMK A01 T01090014  RH  052%=      5-min Rain = 0
KWT1 142238Z 15010KT 11/02 A302 RMK A01 T01110016  RH  052%=      5-min Rain = 0
KWT1 142239Z 16012KT 11/01 A302 RMK A01 T01110014  RH  051%=      5-min Rain = 0
KWT1 142240Z 16011KT 11/01 A302 RMK A01 T01100014  RH  051%=      5-min Rain = 0
KWT1 142241Z 16009KT 11/01 A302 RMK A01 T01100013  RH  051%=      5-min Rain = 0
KWT1 142242Z 15011KT 11/01 A302 RMK A01 T01100014  RH  052%=      5-min Rain = 0
KWT1 142243Z 16012KT 11/01 A302 RMK A01 T01100014  RH  051%=      5-min Rain = 0
KWT1 142244Z 17009KT 11/01 A302 RMK A01 T01100012  RH  051%=      5-min Rain = 0
KWT1 142245Z 17008KT 11/01 A302 RMK A01 T01090013  RH  051%=      5-min Rain = 0
KWT1 142246Z 18006KT 11/02 A302 RMK A01 T01100015  RH  052%=      5-min Rain = 0
KWT1 142247Z 18006KT 11/02 A302 RMK A01 T01120017  RH  052%=      5-min Rain = 0
KWT1 142248Z 16010KT 11/02 A302 RMK A01 T01130017  RH  052%=      5-min Rain = 0
KWT1 142249Z 16011KT 11/01 A302 RMK A01 T01130014  RH  051%=      5-min Rain = 0
KWT1 142250Z 16009KT 11/01 A302 RMK A01 T01110012  RH  050%=      5-min Rain = 0
KWT1 142251Z 16010KT 11/01 A302 RMK A01 T01100014  RH  051%=      5-min Rain = 0
KWT1 142252Z 16012KT 11/02 A302 RMK A01 T01110015  RH  051%=      5-min Rain = 0
KWT1 142253Z 16010KT 11/01 A302 RMK A01 T01110013  RH  051%=      5-min Rain = 0
KWT1 142254Z 18010KT 11/01 A302 RMK A01 T01110014  RH  051%=      5-min Rain = 0
KWT1 142255Z 17009KT 11/01 A302 RMK A01 T01110012  RH  050%=      5-min Rain = 0
KWT1 142256Z 17008KT 11/01 A302 RMK A01 T01110013  RH  051%=      5-min Rain = 0
KWT1 142257Z 17008KT 11/01 A302 RMK A01 T01110013  RH  051%=      5-min Rain = 0
KWT1 142258Z 16010KT 11/01 A302 RMK A01 T01110012  RH  051%=      5-min Rain = 0
KWT1 142259Z 15010KT 11/01 A302 RMK A01 T01110014  RH  051%=      5-min Rain = 0
KWT1 142300Z 15012KT 11/01 A302 RMK A01 T01110013  RH  051%=      5-min Rain = 0
KWT1 142301Z 15011KT 11/02 A302 RMK A01 T01110015  RH  052%=      5-min Rain = 0
KWT1 142302Z 15012KT 11/01 A302 RMK A01 T01110014  RH  051%=      5-min Rain = 0
KWT1 142303Z 15011KT 11/01 A3019 RMK A01 T01110013  RH  051%=      5-min Rain = 0
KWT1 142304Z 15011KT 11/01 A3019 RMK A01 T01100013  RH  051%=      5-min Rain = 0
KWT1 142305Z 16008KT 11/01 A3019 RMK A01 T01100013  RH  051%=      5-min Rain = 0
KWT1 142306Z 16011KT 11/02 A3019 RMK A01 T01110016  RH  052%=      5-min Rain = 0
KWT1 142307Z 16012KT 11/01 A3019 RMK A01 T01110014  RH  051%=      5-min Rain = 0
KWT1 142308Z 15010KT 11/01 A3019 RMK A01 T01100013  RH  051%=      5-min Rain = 0
KWT1 142309Z 16010KT 11/02 A3019 RMK A01 T01100015  RH  052%=      5-min Rain = 0
KWT1 142310Z 15012KT 11/01 A3019 RMK A01 T01100014  RH  051%=      5-min Rain = 0
KWT1 142311Z 16010KT 11/01 A3019 RMK A01 T01100014  RH  051%=      5-min Rain = 0
KWT1 142312Z 16007KT 11/02 A3019 RMK A01 T01100015  RH  052%=      5-min Rain = 0
KWT1 142313Z 16008KT 11/02 A3019 RMK A01 T01110016  RH  052%=      5-min Rain = 0
KWT1 142314Z 16008KT 11/02 A3019 RMK A01 T01110015  RH  051%=      5-min Rain = 0
KWT1 142315Z 17010KT 11/02 A3019 RMK A01 T01120015  RH  051%=      5-min Rain = 0
KWT1 142316Z 17009KT 11/01 A3019 RMK A01 T01110013  RH  051%=      5-min Rain = 0
KWT1 142317Z 17010KT 11/01 A3019 RMK A01 T01100013  RH  051%=      5-min Rain = 0
KWT1 142318Z 17011KT 11/01 A3019 RMK A01 T01100013  RH  051%=      5-min Rain = 0
KWT1 142319Z 16009KT 11/01 A3019 RMK A01 T01100013  RH  051%=      5-min Rain = 0
KWT1 142320Z 17010KT 11/01 A3019 RMK A01 T01100014  RH  051%=      5-min Rain = 0
KWT1 142321Z 17009KT 11/01 A3019 RMK A01 T01100013  RH  051%=      5-min Rain = 0
KWT1 142322Z 17009KT 11/01 A3019 RMK A01 T01100013  RH  051%=      5-min Rain = 0
KWT1 142323Z 16009KT 11/01 A3019 RMK A01 T01100014  RH  051%=      5-min Rain = 0
KWT1 142324Z 16010KT 11/01 A3019 RMK A01 T01100013  RH  051%=      5-min Rain = 0
KWT1 142325Z 16008KT 11/01 A3019 RMK A01 T01110013  RH  051%=      5-min Rain = 0
KWT1 142326Z 15010KT 11/02 A3019 RMK A01 T01110015  RH  052%=      5-min Rain = 0
KWT1 142327Z 15011KT 11/01 A3019 RMK A01 T01100014  RH  051%=      5-min Rain = 0
KWT1 142328Z 15012KT 11/01 A3019 RMK A01 T01110014  RH  051%=      5-min Rain = 0
KWT1 142329Z 16010KT 11/01 A3019 RMK A01 T01100013  RH  051%=      5-min Rain = 0
KWT1 142330Z 15010KT 11/01 A3019 RMK A01 T01100014  RH  051%=      5-min Rain = 0
KWT1 142331Z 15010KT 11/02 A3019 RMK A01 T01100015  RH  052%=      5-min Rain = 0
KWT1 142332Z 15012KT 11/02 A3019 RMK A01 T01100016  RH  052%=      5-min Rain = 0
KWT1 142333Z 15010KT 11/02 A3019 RMK A01 T01100016  RH  052%=      5-min Rain = 0
KWT1 142334Z 15009KT 11/02 A3019 RMK A01 T01090017  RH  053%=      5-min Rain = 0
KWT1 142335Z 14010KT 11/02 A3019 RMK A01 T01100018  RH  053%=      5-min Rain = 0
KWT1 142336Z 15012KT 11/02 A3019 RMK A01 T01090017  RH  053%=      5-min Rain = 0
KWT1 142337Z 14009KT 11/02 A3019 RMK A01 T01090016  RH  053%=      5-min Rain = 0
KWT1 142338Z 14008KT 11/02 A3019 RMK A01 T01090017  RH  053%=      5-min Rain = 0
KWT1 142339Z 14011KT 11/02 A3019 RMK A01 T01080016  RH  053%=      5-min Rain = 0
KWT1 142340Z 14009KT 11/02 A3019 RMK A01 T01080015  RH  053%=      5-min Rain = 0
KWT1 142341Z 14009KT 11/02 A3019 RMK A01 T01070016  RH  053%=      5-min Rain = 0
KWT1 142342Z 14009KT 11/02 A3018 RMK A01 T01070017  RH  054%=      5-min Rain = 0
KWT1 142343Z 14012KT 11/02 A3018 RMK A01 T01070016  RH  053%=      5-min Rain = 0
KWT1 142344Z 14008KT 11/02 A3018 RMK A01 T01070016  RH  053%=      5-min Rain = 0
KWT1 142345Z 14010KT 11/02 A3018 RMK A01 T01070018  RH  054%=      5-min Rain = 0
KWT1 142346Z 14011KT 11/02 A3018 RMK A01 T01070016  RH  053%=      5-min Rain = 0
KWT1 142347Z 14011KT 11/02 A3018 RMK A01 T01060016  RH  053%=      5-min Rain = 0
KWT1 142348Z 14010KT 11/02 A3018 RMK A01 T01060016  RH  054%=      5-min Rain = 0
KWT1 142349Z 14012KT 11/02 A3018 RMK A01 T01070015  RH  053%=      5-min Rain = 0
KWT1 142350Z 14011KT 11/02 A3018 RMK A01 T01060015  RH  053%=      5-min Rain = 0
KWT1 142351Z 15011KT 11/02 A3018 RMK A01 T01060015  RH  053%=      5-min Rain = 0
KWT1 142352Z 15011KT 11/02 A3018 RMK A01 T01060016  RH  054%=      5-min Rain = 0
KWT1 142353Z 15010KT 11/02 A3018 RMK A01 T01060016  RH  054%=      5-min Rain = 0
KWT1 142354Z 15010KT 11/02 A3018 RMK A01 T01060015  RH  053%=      5-min Rain = 0
KWT1 142355Z 14010KT 11/02 A3018 RMK A01 T01060016  RH  054%=      5-min Rain = 0
KWT1 142356Z 14010KT 11/02 A3018 RMK A01 T01060016  RH  054%=      5-min Rain = 0
KWT1 142357Z 15011KT 11/02 A3018 RMK A01 T01050015  RH  053%=      5-min Rain = 0
KWT1 142358Z 15010KT 11/01 A3018 RMK A01 T01050014  RH  053%=      5-min Rain = 0
KWT1 142359Z 16011KT 11/02 A3018 RMK A01 T01060015  RH  053%=      5-min Rain = 0
KWT1 150000Z 16010KT 11/02 A3018 RMK A01 T01050015  RH  053%=      5-min Rain = 0
KWT1 150001Z 15010KT 11/02 A3018 RMK A01 T01050016  RH  054%=      5-min Rain = 0
KWT1 150002Z 16011KT 11/02 A3018 RMK A01 T01050016  RH  054%=      5-min Rain = 0
KWT1 150003Z 15010KT 11/02 A3018 RMK A01 T01050015  RH  054%=      5-min Rain = 0
KWT1 150004Z 15008KT 11/02 A3018 RMK A01 T01050015  RH  054%=      5-min Rain = 0
KWT1 150005Z 15009KT 10/02 A3018 RMK A01 T01040017  RH  055%=      5-min Rain = 0
KWT1 150006Z 15009KT 10/02 A3018 RMK A01 T01040016  RH  055%=      5-min Rain = 0
KWT1 150007Z 15009KT 10/02 A3018 RMK A01 T01030016  RH  055%=      5-min Rain = 0
KWT1 150008Z 15008KT 10/02 A3018 RMK A01 T01030016  RH  055%=      5-min Rain = 0
KWT1 150009Z 15008KT 10/02 A3018 RMK A01 T01030017  RH  055%=      5-min Rain = 0
KWT1 150010Z 15009KT 10/02 A3018 RMK A01 T01020017  RH  055%=      5-min Rain = 0
KWT1 150011Z 15009KT 10/02 A3018 RMK A01 T01020017  RH  056%=      5-min Rain = 0
KWT1 150012Z 15009KT 10/02 A3018 RMK A01 T01010017  RH  056%=      5-min Rain = 0
KWT1 150013Z 15009KT 10/02 A3018 RMK A01 T01010017  RH  056%=      5-min Rain = 0
KWT1 150014Z 15009KT 10/02 A3018 RMK A01 T01010016  RH  056%=      5-min Rain = 0
KWT1 150015Z 15009KT 10/02 A3018 RMK A01 T01000016  RH  056%=      5-min Rain = 0
KWT1 150016Z 15008KT 10/02 A3018 RMK A01 T01000017  RH  056%=      5-min Rain = 0
KWT1 150017Z 15008KT 10/02 A3018 RMK A01 T00990017  RH  057%=      5-min Rain = 0
KWT1 150018Z 15008KT 10/02 A3018 RMK A01 T00980017  RH  057%=      5-min Rain = 0
KWT1 150019Z 15008KT 10/02 A3018 RMK A01 T00970016  RH  057%=      5-min Rain = 0
KWT1 150020Z 15008KT 10/02 A3018 RMK A01 T00970017  RH  057%=      5-min Rain = 0
KWT1 150021Z 16008KT 10/02 A3018 RMK A01 T00960017  RH  058%=      5-min Rain = 0
KWT1 150022Z 15008KT 10/02 A3018 RMK A01 T00960017  RH  058%=      5-min Rain = 0
KWT1 150023Z 15009KT 10/02 A3018 RMK A01 T00950017  RH  058%=      5-min Rain = 0
KWT1 150024Z 15008KT 10/02 A3018 RMK A01 T00950017  RH  058%=      5-min Rain = 0
KWT1 150025Z 15008KT 10/02 A3018 RMK A01 T00950017  RH  058%=      5-min Rain = 0
KWT1 150026Z 15008KT 10/02 A3018 RMK A01 T00950017  RH  058%=      5-min Rain = 0
KWT1 150027Z 15007KT 09/02 A3018 RMK A01 T00940017  RH  059%=      5-min Rain = 0
KWT1 150028Z 15008KT 09/02 A3018 RMK A01 T00930017  RH  059%=      5-min Rain = 0
KWT1 150029Z 15008KT 09/02 A3018 RMK A01 T00920017  RH  059%=      5-min Rain = 0
KWT1 150030Z 15008KT 09/02 A3018 RMK A01 T00910017  RH  059%=      5-min Rain = 0
KWT1 150031Z 15007KT 09/02 A3018 RMK A01 T00910017  RH  060%=      5-min Rain = 0
KWT1 150032Z 15008KT 09/02 A3018 RMK A01 T00900017  RH  060%=      5-min Rain = 0
KWT1 150033Z 15008KT 09/02 A3018 RMK A01 T00890017  RH  061%=      5-min Rain = 0
KWT1 150034Z 15008KT 09/02 A3018 RMK A01 T00890018  RH  061%=      5-min Rain = 0
KWT1 150035Z 15008KT 09/02 A3018 RMK A01 T00890018  RH  061%=      5-min Rain = 0
KWT1 150036Z 15008KT 09/02 A3018 RMK A01 T00880018  RH  061%=      5-min Rain = 0
KWT1 150037Z 16008KT 09/02 A3018 RMK A01 T00880018  RH  061%=      5-min Rain = 0
KWT1 150038Z 15008KT 09/02 A3018 RMK A01 T00880018  RH  061%=      5-min Rain = 0
KWT1 150039Z 15008KT 09/02 A3018 RMK A01 T00870018  RH  062%=      5-min Rain = 0
KWT1 150040Z 15008KT 09/02 A3018 RMK A01 T00870018  RH  062%=      5-min Rain = 0
KWT1 150041Z 15008KT 09/02 A3018 RMK A01 T00860018  RH  062%=      5-min Rain = 0
KWT1 150042Z 14008KT 09/02 A3018 RMK A01 T00850019  RH  063%=      5-min Rain = 0
KWT1 150043Z 14008KT 08/02 A3018 RMK A01 T00840018  RH  063%=      5-min Rain = 0
KWT1 150044Z 15008KT 08/02 A3018 RMK A01 T00840018  RH  063%=      5-min Rain = 0
KWT1 150045Z 15008KT 08/02 A3018 RMK A01 T00840018  RH  063%=      5-min Rain = 0
KWT1 150046Z 15008KT 08/02 A3018 RMK A01 T00840018  RH  063%=      5-min Rain = 0
KWT1 150047Z 15008KT 08/02 A3018 RMK A01 T00840019  RH  063%=      5-min Rain = 0
KWT1 150048Z 15007KT 08/02 A3018 RMK A01 T00830018  RH  064%=      5-min Rain = 0
KWT1 150049Z 15007KT 08/02 A3018 RMK A01 T00830018  RH  064%=      5-min Rain = 0
KWT1 150050Z 15008KT 08/02 A3018 RMK A01 T00830018  RH  064%=      5-min Rain = 0
KWT1 150051Z 15008KT 08/02 A3018 RMK A01 T00830018  RH  064%=      5-min Rain = 0
KWT1 150052Z 15008KT 08/02 A3018 RMK A01 T00820018  RH  064%=      5-min Rain = 0
KWT1 150053Z 15007KT 08/02 A3018 RMK A01 T00820017  RH  064%=      5-min Rain = 0
KWT1 150054Z 15007KT 08/02 A3018 RMK A01 T00810017  RH  064%=      5-min Rain = 0
KWT1 150055Z 15007KT 08/02 A3018 RMK A01 T00810017  RH  064%=      5-min Rain = 0
KWT1 150056Z 15007KT 08/02 A3018 RMK A01 T00800017  RH  064%=      5-min Rain = 0
KWT1 150057Z 15006KT 08/02 A3018 RMK A01 T00790017  RH  065%=      5-min Rain = 0
KWT1 150058Z 15006KT 08/02 A3018 RMK A01 T00780017  RH  065%=      5-min Rain = 0
KWT1 150059Z 14006KT 08/02 A3018 RMK A01 T00780017  RH  065%=      5-min Rain = 0
KWT1 150100Z 14006KT 08/02 A3018 RMK A01 T00770017  RH  066%=      5-min Rain = 0
KWT1 150101Z 14006KT 08/02 A3018 RMK A01 T00770017  RH  066%=      5-min Rain = 0
KWT1 150102Z 15007KT 08/02 A3018 RMK A01 T00760016  RH  066%=      5-min Rain = 0
KWT1 150103Z 14006KT 08/02 A3018 RMK A01 T00760016  RH  066%=      5-min Rain = 0
KWT1 150104Z 15006KT 08/02 A3018 RMK A01 T00750016  RH  066%=      5-min Rain = 0
KWT1 150105Z 15006KT 07/02 A3018 RMK A01 T00740016  RH  067%=      5-min Rain = 0
KWT1 150106Z 15006KT 07/02 A3018 RMK A01 T00740016  RH  067%=      5-min Rain = 0
KWT1 150107Z 15007KT 07/02 A3018 RMK A01 T00730016  RH  067%=      5-min Rain = 0
KWT1 150108Z 15007KT 07/02 A3018 RMK A01 T00730016  RH  067%=      5-min Rain = 0
KWT1 150109Z 14007KT 07/02 A3018 RMK A01 T00730017  RH  067%=      5-min Rain = 0
KWT1 150110Z 14007KT 07/02 A3018 RMK A01 T00730016  RH  067%=      5-min Rain = 0
KWT1 150111Z 14007KT 07/02 A3018 RMK A01 T00720016  RH  068%=      5-min Rain = 0
KWT1 150112Z 14007KT 07/02 A3018 RMK A01 T00720016  RH  068%=      5-min Rain = 0
KWT1 150113Z 14006KT 07/02 A3018 RMK A01 T00710016  RH  068%=      5-min Rain = 0
KWT1 150114Z 14006KT 07/02 A3018 RMK A01 T00710017  RH  068%=      5-min Rain = 0
KWT1 150115Z 14006KT 07/02 A3018 RMK A01 T00710017  RH  068%=      5-min Rain = 0
KWT1 150116Z 15006KT 07/02 A3018 RMK A01 T00700016  RH  069%=      5-min Rain = 0
KWT1 150117Z 15006KT 07/02 A3018 RMK A01 T00700016  RH  069%=      5-min Rain = 0
KWT1 150118Z 15006KT 07/02 A3019 RMK A01 T00690016  RH  069%=      5-min Rain = 0
KWT1 150119Z 15006KT 07/02 A3019 RMK A01 T00690016  RH  069%=      5-min Rain = 0
KWT1 150120Z 15006KT 07/02 A3019 RMK A01 T00680015  RH  069%=      5-min Rain = 0
KWT1 150121Z 15006KT 07/02 A3019 RMK A01 T00680016  RH  070%=      5-min Rain = 0
KWT1 150122Z 15006KT 07/02 A3019 RMK A01 T00670016  RH  070%=      5-min Rain = 0
KWT1 150123Z 15006KT 07/02 A3019 RMK A01 T00670016  RH  070%=      5-min Rain = 0
KWT1 150124Z 15006KT 07/02 A3019 RMK A01 T00670016  RH  070%=      5-min Rain = 0
KWT1 150125Z 15006KT 07/02 A3019 RMK A01 T00660016  RH  070%=      5-min Rain = 0
KWT1 150126Z 15007KT 07/02 A3019 RMK A01 T00660016  RH  070%=      5-min Rain = 0
KWT1 150127Z 15007KT 07/02 A3019 RMK A01 T00660016  RH  070%=      5-min Rain = 0
KWT1 150128Z 15007KT 07/02 A3019 RMK A01 T00650016  RH  071%=      5-min Rain = 0
KWT1 150129Z 15007KT 07/02 A3019 RMK A01 T00660016  RH  071%=      5-min Rain = 0
KWT1 150130Z 15007KT 07/02 A3019 RMK A01 T00650016  RH  071%=      5-min Rain = 0
KWT1 150131Z 15006KT 07/02 A3019 RMK A01 T00650016  RH  071%=      5-min Rain = 0
KWT1 150132Z 15006KT 07/02 A3019 RMK A01 T00650015  RH  071%=      5-min Rain = 0
KWT1 150133Z 15006KT 07/02 A3019 RMK A01 T00650016  RH  071%=      5-min Rain = 0
KWT1 150134Z 15006KT 06/02 A3019 RMK A01 T00640016  RH  071%=      5-min Rain = 0
KWT1 150135Z 15006KT 06/02 A3019 RMK A01 T00640015  RH  071%=      5-min Rain = 0
KWT1 150136Z 15006KT 06/02 A3019 RMK A01 T00630016  RH  071%=      5-min Rain = 0
KWT1 150137Z 15007KT 06/02 A3019 RMK A01 T00630015  RH  072%=      5-min Rain = 0
KWT1 150138Z 15007KT 06/02 A3019 RMK A01 T00630016  RH  072%=      5-min Rain = 0
KWT1 150139Z 15007KT 06/02 A3019 RMK A01 T00630015  RH  072%=      5-min Rain = 0
KWT1 150140Z 15007KT 06/02 A3019 RMK A01 T00630016  RH  072%=      5-min Rain = 0
KWT1 150141Z 15007KT 06/02 A3019 RMK A01 T00630016  RH  072%=      5-min Rain = 0
KWT1 150142Z 15007KT 06/02 A3019 RMK A01 T00630016  RH  072%=      5-min Rain = 0
KWT1 150143Z 15007KT 06/02 A3019 RMK A01 T00620016  RH  072%=      5-min Rain = 0
KWT1 150144Z 16007KT 06/02 A3019 RMK A01 T00620016  RH  072%=      5-min Rain = 0
KWT1 150145Z 16007KT 06/02 A3019 RMK A01 T00620015  RH  072%=      5-min Rain = 0
KWT1 150146Z 15007KT 06/02 A3019 RMK A01 T00620015  RH  072%=      5-min Rain = 0
KWT1 150147Z 16008KT 06/02 A3019 RMK A01 T00620015  RH  072%=      5-min Rain = 0
KWT1 150148Z 16008KT 06/02 A3019 RMK A01 T00620016  RH  072%=      5-min Rain = 0
KWT1 150149Z 16007KT 06/02 A3019 RMK A01 T00620015  RH  072%=      5-min Rain = 0
KWT1 150150Z 16008KT 06/02 A3019 RMK A01 T00610016  RH  072%=      5-min Rain = 0
KWT1 150151Z 16007KT 06/02 A3019 RMK A01 T00610016  RH  073%=      5-min Rain = 0
KWT1 150152Z 16007KT 06/02 A3019 RMK A01 T00610016  RH  073%=      5-min Rain = 0
KWT1 150153Z 16008KT 06/02 A3019 RMK A01 T00610016  RH  073%=      5-min Rain = 0
KWT1 150154Z 16007KT 06/02 A3019 RMK A01 T00600016  RH  073%=      5-min Rain = 0
KWT1 150155Z 16008KT 06/02 A3019 RMK A01 T00600016  RH  073%=      5-min Rain = 0
KWT1 150156Z 16008KT 06/02 A3019 RMK A01 T00590015  RH  073%=      5-min Rain = 0
KWT1 150157Z 16008KT 06/02 A3019 RMK A01 T00590016  RH  074%=      5-min Rain = 0
KWT1 150158Z 16008KT 06/02 A3019 RMK A01 T00590015  RH  074%=      5-min Rain = 0
KWT1 150159Z 16007KT 06/02 A3019 RMK A01 T00590015  RH  074%=      5-min Rain = 0
KWT1 150200Z 16008KT 06/02 A3019 RMK A01 T00590016  RH  074%=      5-min Rain = 0
KWT1 150201Z 16007KT 06/02 A3019 RMK A01 T00590015  RH  074%=      5-min Rain = 0
KWT1 150202Z 16007KT 06/02 A3019 RMK A01 T00590016  RH  074%=      5-min Rain = 0
KWT1 150203Z 16007KT 06/02 A3019 RMK A01 T00580015  RH  074%=      5-min Rain = 0
KWT1 150204Z 16007KT 06/02 A3019 RMK A01 T00580015  RH  074%=      5-min Rain = 0
KWT1 150205Z 16007KT 06/02 A3019 RMK A01 T00580015  RH  074%=      5-min Rain = 0
KWT1 150206Z 16007KT 06/02 A3019 RMK A01 T00580015  RH  074%=      5-min Rain = 0
KWT1 150207Z 16008KT 06/02 A3019 RMK A01 T00580015  RH  074%=      5-min Rain = 0
KWT1 150208Z 16007KT 06/02 A3019 RMK A01 T00570015  RH  074%=      5-min Rain = 0
KWT1 150209Z 16008KT 06/01 A3019 RMK A01 T00570014  RH  074%=      5-min Rain = 0
KWT1 150210Z 16008KT 06/02 A3019 RMK A01 T00570015  RH  074%=      5-min Rain = 0
KWT1 150211Z 16008KT 06/01 A3019 RMK A01 T00570014  RH  074%=      5-min Rain = 0
KWT1 150212Z 16008KT 06/01 A3019 RMK A01 T00570014  RH  074%=      5-min Rain = 0
KWT1 150213Z 16008KT 06/01 A3019 RMK A01 T00570014  RH  074%=      5-min Rain = 0
KWT1 150214Z 16008KT 06/01 A3019 RMK A01 T00570014  RH  074%=      5-min Rain = 0
KWT1 150215Z 16008KT 06/01 A3019 RMK A01 T00570014  RH  074%=      5-min Rain = 0
KWT1 150216Z 16008KT 06/01 A3019 RMK A01 T00570014  RH  074%=      5-min Rain = 0
KWT1 150217Z 16008KT 06/01 A3019 RMK A01 T00570014  RH  074%=      5-min Rain = 0
KWT1 150218Z 16008KT 06/01 A3019 RMK A01 T00570014  RH  074%=      5-min Rain = 0
KWT1 150219Z 16008KT 06/01 A3019 RMK A01 T00560014  RH  074%=      5-min Rain = 0
KWT1 150220Z 16008KT 06/01 A3019 RMK A01 T00560014  RH  074%=      5-min Rain = 0
KWT1 150221Z 16008KT 06/01 A3019 RMK A01 T00560014  RH  074%=      5-min Rain = 0
KWT1 150222Z 16008KT 06/01 A3019 RMK A01 T00560014  RH  074%=      5-min Rain = 0
KWT1 150223Z 16008KT 06/01 A3019 RMK A01 T00560014  RH  074%=      5-min Rain = 0
KWT1 150224Z 17008KT 06/01 A3019 RMK A01 T00560014  RH  074%=      5-min Rain = 0
KWT1 150225Z 17008KT 06/01 A3019 RMK A01 T00560013  RH  074%=      5-min Rain = 0
KWT1 150226Z 17008KT 06/01 A3019 RMK A01 T00560013  RH  074%=      5-min Rain = 0
KWT1 150227Z 17008KT 06/01 A3019 RMK A01 T00560013  RH  074%=      5-min Rain = 0
KWT1 150228Z 17008KT 06/01 A3019 RMK A01 T00560013  RH  074%=      5-min Rain = 0
KWT1 150229Z 16008KT 06/01 A3019 RMK A01 T00560013  RH  074%=      5-min Rain = 0
KWT1 150230Z 16009KT 06/01 A3019 RMK A01 T00560013  RH  074%=      5-min Rain = 0
KWT1 150231Z 16008KT 06/01 A3019 RMK A01 T00570013  RH  073%=      5-min Rain = 0
KWT1 150232Z 17008KT 06/01 A3019 RMK A01 T00580013  RH  073%=      5-min Rain = 0
KWT1 150233Z 17008KT 06/01 A3019 RMK A01 T00580013  RH  073%=      5-min Rain = 0
KWT1 150234Z 17009KT 06/01 A3019 RMK A01 T00580013  RH  073%=      5-min Rain = 0
KWT1 150235Z 16008KT 06/01 A3019 RMK A01 T00580013  RH  072%=      5-min Rain = 0
KWT1 150236Z 16008KT 06/01 A3019 RMK A01 T00590013  RH  072%=      5-min Rain = 0
KWT1 150237Z 16008KT 06/01 A3019 RMK A01 T00580012  RH  072%=      5-min Rain = 0
KWT1 150238Z 16009KT 06/01 A3019 RMK A01 T00590012  RH  072%=      5-min Rain = 0
KWT1 150239Z 17009KT 06/01 A3019 RMK A01 T00590012  RH  072%=      5-min Rain = 0
KWT1 150240Z 17009KT 06/01 A3019 RMK A01 T00590013  RH  072%=      5-min Rain = 0
KWT1 150241Z 17008KT 06/01 A3019 RMK A01 T00580012  RH  072%=      5-min Rain = 0
KWT1 150242Z 17008KT 06/01 A3019 RMK A01 T00590012  RH  072%=      5-min Rain = 0
KWT1 150243Z 17008KT 06/01 A3019 RMK A01 T00590012  RH  072%=      5-min Rain = 0
KWT1 150244Z 17009KT 06/01 A3019 RMK A01 T00590013  RH  072%=      5-min Rain = 0
KWT1 150245Z 17008KT 06/01 A3019 RMK A01 T00590012  RH  072%=      5-min Rain = 0
KWT1 150246Z 17008KT 06/01 A3019 RMK A01 T00590012  RH  072%=      5-min Rain = 0
KWT1 150247Z 17009KT 06/01 A3019 RMK A01 T00590013  RH  072%=      5-min Rain = 0
KWT1 150248Z 16008KT 06/01 A3019 RMK A01 T00580012  RH  072%=      5-min Rain = 0
KWT1 150249Z 17008KT 06/01 A3019 RMK A01 T00580012  RH  072%=      5-min Rain = 0
KWT1 150250Z 17008KT 06/01 A3019 RMK A01 T00580012  RH  072%=      5-min Rain = 0
KWT1 150251Z 16008KT 06/01 A3019 RMK A01 T00570012  RH  073%=      5-min Rain = 0
KWT1 150252Z 17008KT 06/01 A3019 RMK A01 T00570012  RH  073%=      5-min Rain = 0
KWT1 150253Z 16008KT 06/01 A3019 RMK A01 T00570012  RH  073%=      5-min Rain = 0
KWT1 150254Z 16008KT 06/01 A3019 RMK A01 T00560012  RH  073%=      5-min Rain = 0
KWT1 150255Z 16008KT 06/01 A3019 RMK A01 T00560012  RH  073%=      5-min Rain = 0
KWT1 150256Z 16009KT 06/01 A3019 RMK A01 T00560012  RH  073%=      5-min Rain = 0
KWT1 150257Z 16008KT 06/01 A3019 RMK A01 T00560012  RH  073%=      5-min Rain = 0
KWT1 150258Z 16008KT 06/01 A3019 RMK A01 T00560012  RH  073%=      5-min Rain = 0
KWT1 150259Z 16009KT 06/01 A3019 RMK A01 T00550012  RH  074%=      5-min Rain = 0
KWT1 150300Z 16009KT 06/01 A3019 RMK A01 T00550012  RH  074%=      5-min Rain = 0
KWT1 150301Z 16009KT 06/01 A3019 RMK A01 T00550012  RH  074%=      5-min Rain = 0
KWT1 150302Z 16009KT 06/01 A3019 RMK A01 T00550012  RH  074%=      5-min Rain = 0
KWT1 150303Z 16008KT 06/01 A3019 RMK A01 T00550012  RH  074%=      5-min Rain = 0
KWT1 150304Z 16009KT 05/01 A3019 RMK A01 T00540012  RH  074%=      5-min Rain = 0
KWT1 150305Z 16008KT 05/01 A3019 RMK A01 T00540012  RH  074%=      5-min Rain = 0
KWT1 150306Z 16008KT 05/01 A3019 RMK A01 T00540012  RH  074%=      5-min Rain = 0
KWT1 150307Z 17008KT 05/01 A3019 RMK A01 T00540011  RH  074%=      5-min Rain = 0
KWT1 150308Z 17008KT 05/01 A3019 RMK A01 T00540011  RH  074%=      5-min Rain = 0
KWT1 150309Z 17008KT 05/01 A3019 RMK A01 T00530011  RH  074%=      5-min Rain = 0
KWT1 150310Z 16008KT 05/01 A3018 RMK A01 T00540011  RH  074%=      5-min Rain = 0
KWT1 150311Z 17008KT 05/01 A3018 RMK A01 T00530011  RH  074%=      5-min Rain = 0
KWT1 150312Z 16008KT 05/01 A3018 RMK A01 T00530011  RH  074%=      5-min Rain = 0
KWT1 150313Z 17008KT 05/01 A3018 RMK A01 T00530011  RH  074%=      5-min Rain = 0
KWT1 150314Z 16009KT 05/01 A3018 RMK A01 T00540011  RH  074%=      5-min Rain = 0
KWT1 150315Z 17009KT 05/01 A3018 RMK A01 T00540011  RH  074%=      5-min Rain = 0
KWT1 150316Z 16009KT 06/01 A3018 RMK A01 T00550011  RH  073%=      5-min Rain = 0
KWT1 150317Z 17008KT 06/01 A3018 RMK A01 T00550011  RH  073%=      5-min Rain = 0
KWT1 150318Z 17009KT 06/01 A3018 RMK A01 T00550011  RH  073%=      5-min Rain = 0
KWT1 150319Z 17008KT 06/01 A3018 RMK A01 T00550011  RH  073%=      5-min Rain = 0
KWT1 150320Z 17008KT 06/01 A3018 RMK A01 T00550011  RH  073%=      5-min Rain = 0
KWT1 150321Z 17007KT 06/01 A3018 RMK A01 T00550011  RH  073%=      5-min Rain = 0
KWT1 150322Z 17008KT 06/01 A3018 RMK A01 T00550011  RH  073%=      5-min Rain = 0
KWT1 150323Z 17007KT 06/01 A3018 RMK A01 T00560011  RH  073%=      5-min Rain = 0
KWT1 150324Z 17007KT 06/01 A3018 RMK A01 T00550011  RH  073%=      5-min Rain = 0
KWT1 150325Z 17007KT 05/01 A3018 RMK A01 T00540011  RH  073%=      5-min Rain = 0
KWT1 150326Z 17007KT 05/01 A3018 RMK A01 T00540011  RH  074%=      5-min Rain = 0
KWT1 150327Z 17006KT 05/01 A3018 RMK A01 T00530011  RH  074%=      5-min Rain = 0
KWT1 150328Z 17007KT 05/01 A3018 RMK A01 T00520010  RH  074%=      5-min Rain = 0
KWT1 150329Z 17007KT 05/01 A3018 RMK A01 T00520010  RH  075%=      5-min Rain = 0
KWT1 150330Z 17007KT 05/01 A3018 RMK A01 T00510010  RH  075%=      5-min Rain = 0
KWT1 150331Z 17007KT 05/01 A3018 RMK A01 T00510010  RH  075%=      5-min Rain = 0
KWT1 150332Z 17007KT 05/01 A3018 RMK A01 T00510010  RH  075%=      5-min Rain = 0
KWT1 150333Z 17008KT 05/01 A3018 RMK A01 T00510010  RH  075%=      5-min Rain = 0
KWT1 150334Z 17008KT 05/01 A3018 RMK A01 T00510010  RH  075%=      5-min Rain = 0
KWT1 150335Z 17008KT 05/01 A3018 RMK A01 T00520011  RH  075%=      5-min Rain = 0
KWT1 150336Z 17008KT 05/01 A3018 RMK A01 T00520011  RH  075%=      5-min Rain = 0
KWT1 150337Z 17008KT 05/01 A3018 RMK A01 T00530011  RH  074%=      5-min Rain = 0
KWT1 150338Z 17009KT 05/01 A3018 RMK A01 T00540012  RH  074%=      5-min Rain = 0
KWT1 150339Z 17009KT 06/01 A3018 RMK A01 T00550012  RH  074%=      5-min Rain = 0
KWT1 150340Z 17008KT 06/01 A3018 RMK A01 T00550012  RH  074%=      5-min Rain = 0
KWT1 150341Z 17010KT 06/01 A3018 RMK A01 T00550012  RH  074%=      5-min Rain = 0
KWT1 150342Z 16009KT 06/01 A3018 RMK A01 T00550012  RH  074%=      5-min Rain = 0
KWT1 150343Z 17010KT 06/01 A3018 RMK A01 T00550013  RH  074%=      5-min Rain = 0
KWT1 150344Z 17010KT 06/01 A3018 RMK A01 T00550012  RH  074%=      5-min Rain = 0
KWT1 150345Z 16009KT 06/01 A3018 RMK A01 T00550012  RH  074%=      5-min Rain = 0
KWT1 150346Z 16010KT 06/01 A3017 RMK A01 T00550013  RH  074%=      5-min Rain = 0
KWT1 150347Z 17011KT 05/01 A3017 RMK A01 T00540013  RH  075%=      5-min Rain = 0
KWT1 150348Z 16010KT 05/01 A3017 RMK A01 T00530012  RH  075%=      5-min Rain = 0
KWT1 150349Z 17011KT 05/01 A3017 RMK A01 T00530013  RH  075%=      5-min Rain = 0
KWT1 150350Z 16011KT 05/01 A3017 RMK A01 T00530013  RH  075%=      5-min Rain = 0
KWT1 150351Z 16010KT 05/01 A3017 RMK A01 T00530012  RH  075%=      5-min Rain = 0
KWT1 150352Z 16011KT 05/01 A3017 RMK A01 T00530013  RH  075%=      5-min Rain = 0
KWT1 150353Z 17010KT 05/01 A3017 RMK A01 T00520012  RH  076%=      5-min Rain = 0
KWT1 150354Z 16010KT 05/01 A3017 RMK A01 T00520012  RH  076%=      5-min Rain = 0
KWT1 150355Z 17010KT 05/01 A3017 RMK A01 T00520012  RH  076%=      5-min Rain = 0
KWT1 150356Z 16010KT 05/01 A3017 RMK A01 T00520012  RH  076%=      5-min Rain = 0
KWT1 150357Z 16010KT 05/01 A3017 RMK A01 T00520012  RH  076%=      5-min Rain = 0
KWT1 150358Z 16009KT 05/01 A3017 RMK A01 T00510012  RH  076%=      5-min Rain = 0
KWT1 150359Z 17010KT 05/01 A3017 RMK A01 T00510012  RH  076%=      5-min Rain = 0
KWT1 150400Z 17009KT 05/01 A3017 RMK A01 T00510012  RH  076%=      5-min Rain = 0
KWT1 150401Z 17009KT 05/01 A3017 RMK A01 T00510012  RH  076%=      5-min Rain = 0
KWT1 150402Z 17008KT 05/01 A3018 RMK A01 T00510012  RH  076%=      5-min Rain = 0
KWT1 150403Z 16009KT 05/01 A3018 RMK A01 T00510012  RH  076%=      5-min Rain = 0
KWT1 150404Z 17008KT 05/01 A3018 RMK A01 T00500012  RH  076%=      5-min Rain = 0
KWT1 150405Z 17008KT 05/01 A3018 RMK A01 T00500012  RH  076%=      5-min Rain = 0
KWT1 150406Z 16008KT 05/01 A3018 RMK A01 T00510012  RH  076%=      5-min Rain = 0
KWT1 150407Z 17008KT 05/01 A3018 RMK A01 T00500012  RH  077%=      5-min Rain = 0
KWT1 150408Z 17008KT 05/01 A3018 RMK A01 T00500013  RH  077%=      5-min Rain = 0
KWT1 150409Z 16008KT 05/01 A3018 RMK A01 T00500012  RH  077%=      5-min Rain = 0
KWT1 150410Z 17007KT 05/01 A3018 RMK A01 T00500012  RH  076%=      5-min Rain = 0
KWT1 150411Z 16007KT 05/01 A3018 RMK A01 T00500012  RH  076%=      5-min Rain = 0
KWT1 150412Z 17007KT 05/01 A3018 RMK A01 T00500012  RH  077%=      5-min Rain = 0
KWT1 150413Z 17007KT 05/01 A3018 RMK A01 T00500012  RH  077%=      5-min Rain = 0
KWT1 150414Z 17007KT 05/01 A3018 RMK A01 T00500012  RH  077%=      5-min Rain = 0
KWT1 150415Z 17006KT 05/01 A3018 RMK A01 T00490012  RH  077%=      5-min Rain = 0
KWT1 150416Z 17007KT 05/01 A3018 RMK A01 T00490012  RH  077%=      5-min Rain = 0
KWT1 150417Z 17007KT 05/01 A3018 RMK A01 T00480012  RH  077%=      5-min Rain = 0
KWT1 150418Z 17008KT 05/01 A3018 RMK A01 T00480012  RH  077%=      5-min Rain = 0
KWT1 150419Z 17007KT 05/01 A3018 RMK A01 T00480012  RH  078%=      5-min Rain = 0
KWT1 150420Z 17007KT 05/01 A3018 RMK A01 T00480012  RH  078%=      5-min Rain = 0
KWT1 150421Z 17008KT 05/01 A3018 RMK A01 T00480012  RH  078%=      5-min Rain = 0
KWT1 150422Z 17008KT 05/01 A3018 RMK A01 T00480012  RH  077%=      5-min Rain = 0
KWT1 150423Z 17009KT 05/01 A3018 RMK A01 T00480012  RH  077%=      5-min Rain = 0
KWT1 150424Z 17009KT 05/01 A3018 RMK A01 T00480012  RH  078%=      5-min Rain = 0
KWT1 150425Z 17008KT 05/01 A3018 RMK A01 T00480012  RH  078%=      5-min Rain = 0
KWT1 150426Z 17009KT 05/01 A3018 RMK A01 T00480012  RH  077%=      5-min Rain = 0
KWT1 150427Z 17009KT 05/01 A3018 RMK A01 T00480012  RH  077%=      5-min Rain = 0
KWT1 150428Z 17010KT 05/01 A3018 RMK A01 T00490012  RH  077%=      5-min Rain = 0
KWT1 150429Z 17009KT 05/01 A3018 RMK A01 T00490012  RH  077%=      5-min Rain = 0
KWT1 150430Z 17009KT 05/01 A3018 RMK A01 T00490012  RH  077%=      5-min Rain = 0
KWT1 150431Z 17010KT 05/01 A3018 RMK A01 T00500012  RH  077%=      5-min Rain = 0
KWT1 150432Z 17010KT 05/01 A3018 RMK A01 T00500012  RH  077%=      5-min Rain = 0
KWT1 150433Z 17010KT 05/01 A3018 RMK A01 T00500012  RH  077%=      5-min Rain = 0
KWT1 150434Z 17010KT 05/01 A3018 RMK A01 T00500013  RH  076%=      5-min Rain = 0
KWT1 150435Z 17010KT 05/01 A3018 RMK A01 T00510013  RH  076%=      5-min Rain = 0
KWT1 150436Z 17010KT 05/01 A3018 RMK A01 T00510012  RH  076%=      5-min Rain = 0
KWT1 150437Z 17010KT 05/01 A3018 RMK A01 T00510012  RH  076%=      5-min Rain = 0
KWT1 150438Z 17010KT 05/01 A3018 RMK A01 T00510012  RH  076%=      5-min Rain = 0
KWT1 150439Z 17009KT 05/01 A3017 RMK A01 T00510013  RH  076%=      5-min Rain = 0
KWT1 150440Z 17010KT 05/01 A3017 RMK A01 T00500012  RH  076%=      5-min Rain = 0
KWT1 150441Z 17010KT 05/01 A3017 RMK A01 T00500012  RH  076%=      5-min Rain = 0
KWT1 150442Z 17009KT 05/01 A3017 RMK A01 T00500012  RH  077%=      5-min Rain = 0
KWT1 150443Z 17009KT 05/01 A3018 RMK A01 T00500012  RH  076%=      5-min Rain = 0
KWT1 150444Z 17010KT 05/01 A3018 RMK A01 T00500012  RH  077%=      5-min Rain = 0
KWT1 150445Z 17009KT 05/01 A3018 RMK A01 T00500012  RH  077%=      5-min Rain = 0
KWT1 150446Z 17009KT 05/01 A3018 RMK A01 T00500013  RH  077%=      5-min Rain = 0
KWT1 150447Z 17009KT 05/01 A3017 RMK A01 T00490012  RH  077%=      5-min Rain = 0
KWT1 150448Z 17009KT 05/01 A3017 RMK A01 T00490012  RH  077%=      5-min Rain = 0
KWT1 150449Z 17008KT 05/01 A3018 RMK A01 T00490012  RH  077%=      5-min Rain = 0
KWT1 150450Z 17008KT 05/01 A3017 RMK A01 T00490012  RH  077%=      5-min Rain = 0
KWT1 150451Z 17008KT 05/01 A3017 RMK A01 T00480012  RH  077%=      5-min Rain = 0
KWT1 150452Z 16008KT 05/01 A3017 RMK A01 T00480012  RH  078%=      5-min Rain = 0
KWT1 150453Z 17009KT 05/01 A3017 RMK A01 T00480012  RH  078%=      5-min Rain = 0
KWT1 150454Z 17009KT 05/01 A3017 RMK A01 T00480012  RH  078%=      5-min Rain = 0
KWT1 150455Z 17008KT 05/01 A3017 RMK A01 T00470012  RH  078%=      5-min Rain = 0
KWT1 150456Z 17009KT 05/01 A3017 RMK A01 T00470012  RH  078%=      5-min Rain = 0
KWT1 150457Z 17009KT 05/01 A3017 RMK A01 T00460012  RH  078%=      5-min Rain = 0
KWT1 150458Z 17009KT 05/01 A3017 RMK A01 T00460012  RH  079%=      5-min Rain = 0
KWT1 150459Z 17009KT 05/01 A3017 RMK A01 T00460012  RH  079%=      5-min Rain = 0
KWT1 150500Z 17008KT 05/01 A3017 RMK A01 T00460013  RH  079%=      5-min Rain = 0
KWT1 150501Z 18009KT 05/01 A3017 RMK A01 T00460013  RH  079%=      5-min Rain = 0
KWT1 150502Z 17009KT 05/01 A3017 RMK A01 T00460013  RH  079%=      5-min Rain = 0
KWT1 150503Z 18007KT 05/01 A3017 RMK A01 T00450012  RH  079%=      5-min Rain = 0
KWT1 150504Z 18008KT 05/01 A3017 RMK A01 T00450012  RH  079%=      5-min Rain = 0
KWT1 150505Z 18008KT 04/01 A3017 RMK A01 T00440012  RH  080%=      5-min Rain = 0
KWT1 150506Z 18009KT 04/01 A3017 RMK A01 T00440012  RH  080%=      5-min Rain = 0
KWT1 150507Z 18008KT 04/01 A3017 RMK A01 T00440013  RH  080%=      5-min Rain = 0
KWT1 150508Z 18008KT 04/01 A3017 RMK A01 T00440012  RH  080%=      5-min Rain = 0
KWT1 150509Z 18008KT 04/01 A3017 RMK A01 T00440012  RH  080%=      5-min Rain = 0
KWT1 150510Z 18009KT 04/01 A3017 RMK A01 T00430013  RH  080%=      5-min Rain = 0
KWT1 150511Z 18010KT 04/01 A3017 RMK A01 T00440013  RH  080%=      5-min Rain = 0
KWT1 150512Z 18008KT 04/01 A3017 RMK A01 T00440013  RH  080%=      5-min Rain = 0
KWT1 150513Z 18009KT 05/01 A3017 RMK A01 T00450013  RH  080%=      5-min Rain = 0
KWT1 150514Z 18010KT 05/01 A3017 RMK A01 T00450013  RH  080%=      5-min Rain = 0
KWT1 150515Z 18009KT 05/01 A3017 RMK A01 T00450013  RH  080%=      5-min Rain = 0
KWT1 150516Z 18008KT 05/01 A3017 RMK A01 T00460014  RH  080%=      5-min Rain = 0
KWT1 150517Z 18009KT 05/01 A3017 RMK A01 T00460014  RH  079%=      5-min Rain = 0
KWT1 150518Z 18009KT 05/01 A3017 RMK A01 T00460014  RH  079%=      5-min Rain = 0
KWT1 150519Z 18009KT 05/01 A3017 RMK A01 T00460013  RH  079%=      5-min Rain = 0
KWT1 150520Z 18008KT 05/01 A3017 RMK A01 T00460014  RH  079%=      5-min Rain = 0
KWT1 150521Z 18007KT 05/01 A3017 RMK A01 T00460013  RH  080%=      5-min Rain = 0
KWT1 150522Z 19007KT 05/01 A3017 RMK A01 T00460014  RH  080%=      5-min Rain = 0
KWT1 150523Z 19007KT 05/01 A3017 RMK A01 T00450013  RH  080%=      5-min Rain = 0
KWT1 150524Z 19007KT 04/01 A3017 RMK A01 T00440013  RH  080%=      5-min Rain = 0
KWT1 150525Z 19007KT 04/01 A3017 RMK A01 T00430013  RH  081%=      5-min Rain = 0
KWT1 150526Z 19007KT 04/01 A3017 RMK A01 T00420012  RH  081%=      5-min Rain = 0
KWT1 150527Z 19006KT 04/01 A3017 RMK A01 T00410012  RH  081%=      5-min Rain = 0
KWT1 150528Z 19007KT 04/01 A3017 RMK A01 T00400012  RH  082%=      5-min Rain = 0
KWT1 150529Z 19007KT 04/01 A3017 RMK A01 T00400012  RH  082%=      5-min Rain = 0
KWT1 150530Z 19007KT 04/01 A3017 RMK A01 T00400012  RH  082%=      5-min Rain = 0
KWT1 150531Z 19008KT 04/01 A3017 RMK A01 T00400012  RH  082%=      5-min Rain = 0
KWT1 150532Z 18007KT 04/01 A3017 RMK A01 T00390012  RH  082%=      5-min Rain = 0
KWT1 150533Z 18008KT 04/01 A3017 RMK A01 T00390012  RH  083%=      5-min Rain = 0
KWT1 150534Z 18009KT 04/01 A3017 RMK A01 T00390012  RH  083%=      5-min Rain = 0
KWT1 150535Z 19008KT 04/01 A3017 RMK A01 T00400013  RH  082%=      5-min Rain = 0
KWT1 150536Z 19008KT 04/01 A3016 RMK A01 T00410013  RH  082%=      5-min Rain = 0
KWT1 150537Z 18007KT 04/01 A3016 RMK A01 T00410013  RH  082%=      5-min Rain = 0
KWT1 150538Z 19007KT 04/01 A3016 RMK A01 T00410013  RH  082%=      5-min Rain = 0
KWT1 150539Z 19008KT 04/01 A3016 RMK A01 T00410013  RH  082%=      5-min Rain = 0
KWT1 150540Z 19007KT 04/01 A3016 RMK A01 T00410013  RH  082%=      5-min Rain = 0
KWT1 150541Z 18007KT 04/01 A3016 RMK A01 T00410013  RH  082%=      5-min Rain = 0
KWT1 150542Z 19007KT 04/01 A3016 RMK A01 T00420014  RH  082%=      5-min Rain = 0
KWT1 150543Z 18007KT 04/01 A3016 RMK A01 T00420014  RH  082%=      5-min Rain = 0
KWT1 150544Z 19008KT 04/01 A3016 RMK A01 T00420014  RH  082%=      5-min Rain = 0
KWT1 150545Z 19007KT 04/02 A3016 RMK A01 T00420015  RH  083%=      5-min Rain = 0
KWT1 150546Z 19007KT 04/02 A3016 RMK A01 T00430015  RH  082%=      5-min Rain = 0
KWT1 150547Z 19007KT 04/02 A3016 RMK A01 T00430015  RH  082%=      5-min Rain = 0
KWT1 150548Z 19008KT 04/02 A3016 RMK A01 T00430016  RH  082%=      5-min Rain = 0
KWT1 150549Z 19008KT 04/02 A3017 RMK A01 T00440016  RH  082%=      5-min Rain = 0
KWT1 150550Z 20007KT 04/02 A3017 RMK A01 T00440016  RH  082%=      5-min Rain = 0
KWT1 150551Z 20007KT 04/02 A3017 RMK A01 T00440016  RH  082%=      5-min Rain = 0
KWT1 150552Z 20007KT 04/02 A3017 RMK A01 T00440016  RH  082%=      5-min Rain = 0
KWT1 150553Z 20007KT 04/02 A3016 RMK A01 T00440016  RH  082%=      5-min Rain = 0
KWT1 150554Z 20006KT 04/02 A3017 RMK A01 T00440016  RH  082%=      5-min Rain = 0
KWT1 150555Z 20007KT 04/02 A3017 RMK A01 T00430016  RH  082%=      5-min Rain = 0
KWT1 150556Z 20007KT 04/02 A3017 RMK A01 T00430016  RH  082%=      5-min Rain = 0
KWT1 150557Z 20007KT 04/02 A3017 RMK A01 T00430016  RH  083%=      5-min Rain = 0
KWT1 150558Z 20007KT 04/02 A3017 RMK A01 T00430016  RH  083%=      5-min Rain = 0
KWT1 150559Z 21006KT 04/02 A3017 RMK A01 T00430017  RH  083%=      5-min Rain = 0

Page generated in 0.1497 seconds.